Time,TemperatureF,DewpointF,PressureIn,WindDirection,WindDirectionDegrees,WindSpeedMPH,WindSpeedGustMPH,Humidity,HourlyPrecipIn,Conditions,Clouds,dailyrainin,SoftwareType,DateUTC
2013-10-06 00:00:00,73.7,64.9,29.58,SE,135,0.0,0.0,75,0.00,,,0.00,WUHU216HW,2013-10-06 04:00:00,
2013-10-06 00:01:00,73.9,65.5,29.58,SE,135,0.0,0.0,75,0.00,,,0.00,WUHU216HW,2013-10-06 04:01:00,
2013-10-06 00:07:00,73.7,65.3,29.58,ESE,113,0.0,0.0,75,0.00,,,0.00,WUHU216HW,2013-10-06 04:07:00,
2013-10-06 00:08:00,73.7,65.3,29.58,ESE,113,0.0,0.0,75,0.00,,,0.00,WUHU216HW,2013-10-06 04:08:00,
2013-10-06 00:10:00,73.7,65.3,29.58,ESE,113,0.0,0.0,76,0.00,,,0.00,WUHU216HW,2013-10-06 04:10:00,
2013-10-06 00:14:00,73.7,65.3,29.58,ESE,113,0.0,0.0,75,0.00,,,0.00,WUHU216HW,2013-10-06 04:14:00,
2013-10-06 00:15:00,73.7,65.3,29.58,ESE,113,0.0,0.0,75,0.00,,,0.00,WUHU216HW,2013-10-06 04:15:00,
2013-10-06 00:17:00,73.9,65.5,29.58,ESE,113,0.0,0.0,75,0.00,,,0.00,WUHU216HW,2013-10-06 04:17:00,
2013-10-06 00:22:00,72.3,65.0,29.78,SE,135,0.0,0.0,79,0.00,,,0.00,WUHU216HW,2013-10-06 04:22:00,
2013-10-06 00:24:00,73.5,65.2,29.58,ESE,113,0.0,0.0,75,0.00,,,0.00,WUHU216HW,2013-10-06 04:24:00,
2013-10-06 00:25:00,73.5,65.2,29.58,ESE,113,0.0,0.0,76,0.00,,,0.00,WUHU216HW,2013-10-06 04:25:00,
2013-10-06 00:27:00,72.1,65.2,29.77,SE,135,0.0,0.0,79,0.00,,,0.00,WUHU216HW,2013-10-06 04:27:00,
2013-10-06 00:28:00,73.5,65.2,29.58,ESE,113,0.0,0.0,76,0.00,,,0.00,WUHU216HW,2013-10-06 04:28:00,
2013-10-06 00:29:00,73.5,65.2,29.58,ESE,113,0.0,0.0,76,0.00,,,0.00,WUHU216HW,2013-10-06 04:29:00,
2013-10-06 00:31:00,73.5,65.2,29.58,ESE,113,0.0,0.0,77,0.00,,,0.00,WUHU216HW,2013-10-06 04:31:00,
2013-10-06 00:32:00,72.1,65.2,29.77,SE,135,0.0,0.0,79,0.00,,,0.00,WUHU216HW,2013-10-06 04:32:00,
2013-10-06 00:33:00,73.5,65.2,29.58,ESE,113,0.0,0.0,77,0.00,,,0.00,WUHU216HW,2013-10-06 04:33:00,
2013-10-06 00:34:00,73.5,65.2,29.58,ESE,113,0.0,0.0,77,0.00,,,0.00,WUHU216HW,2013-10-06 04:34:00,
2013-10-06 00:35:00,73.5,65.2,29.58,ESE,113,0.0,0.0,77,0.00,,,0.00,WUHU216HW,2013-10-06 04:35:00,
2013-10-06 00:37:00,72.1,65.2,29.78,SE,135,0.0,0.0,79,0.00,,,0.00,WUHU216HW,2013-10-06 04:37:00,
2013-10-06 00:38:00,73.2,65.6,29.58,ESE,113,0.0,0.0,77,0.00,,,0.00,WUHU216HW,2013-10-06 04:38:00,
2013-10-06 00:42:00,71.9,65.1,29.78,SE,135,0.0,0.0,79,0.00,,,0.00,WUHU216HW,2013-10-06 04:42:00,
2013-10-06 00:47:00,71.7,64.9,29.77,SE,135,0.0,0.0,79,0.00,,,0.00,WUHU216HW,2013-10-06 04:47:00,
2013-10-06 00:52:00,71.7,64.9,29.77,SE,135,0.0,0.0,79,0.00,,,0.00,WUHU216HW,2013-10-06 04:52:00,
2013-10-06 00:58:00,71.4,64.9,29.77,SE,135,0.0,0.0,80,0.00,,,0.00,WUHU216HW,2013-10-06 04:58:00,
2013-10-06 01:02:00,71.4,64.9,29.77,SE,135,0.0,0.0,80,0.00,,,0.00,WUHU216HW,2013-10-06 05:02:00,
2013-10-06 01:08:00,71.4,64.9,29.77,SE,135,0.0,0.0,80,0.00,,,0.00,WUHU216HW,2013-10-06 05:08:00,
2013-10-06 01:13:00,71.2,64.7,29.77,SE,135,0.0,0.0,80,0.00,,,0.00,WUHU216HW,2013-10-06 05:13:00,
2013-10-06 01:18:00,71.2,64.7,29.77,SE,135,0.0,0.0,81,0.00,,,0.00,WUHU216HW,2013-10-06 05:18:00,
2013-10-06 01:19:00,72.3,65.4,29.57,ESE,113,0.0,0.0,79,0.00,,,0.00,WUHU216HW,2013-10-06 05:19:00,
2013-10-06 01:20:00,72.3,65.4,29.57,ESE,113,0.0,0.0,79,0.00,,,0.00,WUHU216HW,2013-10-06 05:20:00,
2013-10-06 01:21:00,72.3,65.4,29.57,ESE,113,0.0,0.0,79,0.00,,,0.00,WUHU216HW,2013-10-06 05:21:00,
2013-10-06 01:22:00,72.3,65.4,29.57,ESE,113,0.0,0.0,79,0.00,,,0.00,WUHU216HW,2013-10-06 05:22:00,
2013-10-06 01:23:00,71.2,64.7,29.77,SE,135,0.0,0.0,81,0.00,,,0.00,WUHU216HW,2013-10-06 05:23:00,
2013-10-06 01:24:00,72.3,65.4,29.57,ESE,113,0.0,0.0,79,0.00,,,0.00,WUHU216HW,2013-10-06 05:24:00,
2013-10-06 01:25:00,72.1,65.2,29.57,ESE,113,0.0,0.0,79,0.00,,,0.00,WUHU216HW,2013-10-06 05:25:00,
2013-10-06 01:26:00,72.1,65.2,29.57,ESE,113,0.0,0.0,79,0.00,,,0.00,WUHU216HW,2013-10-06 05:26:00,
2013-10-06 01:27:00,72.1,65.2,29.57,ESE,113,0.0,0.0,79,0.00,,,0.00,WUHU216HW,2013-10-06 05:27:00,
2013-10-06 01:29:00,71.0,64.9,29.77,SE,135,0.0,0.0,81,0.00,,,0.00,WUHU216HW,2013-10-06 05:29:00,
2013-10-06 01:31:00,72.1,65.2,29.56,ESE,113,0.0,0.0,79,0.00,,,0.00,WUHU216HW,2013-10-06 05:31:00,
2013-10-06 01:32:00,71.9,65.1,29.56,ESE,113,0.0,0.0,79,0.00,,,0.00,WUHU216HW,2013-10-06 05:32:00,
2013-10-06 01:33:00,71.9,65.1,29.56,ESE,113,0.0,0.0,79,0.00,,,0.00,WUHU216HW,2013-10-06 05:33:00,
2013-10-06 01:34:00,70.8,64.7,29.77,SE,135,0.0,0.0,82,0.00,,,0.00,WUHU216HW,2013-10-06 05:34:00,
2013-10-06 01:35:00,71.9,65.1,29.57,ESE,113,0.0,0.0,79,0.00,,,0.00,WUHU216HW,2013-10-06 05:35:00,
2013-10-06 01:36:00,71.9,65.1,29.56,ESE,113,0.0,0.0,79,0.00,,,0.00,WUHU216HW,2013-10-06 05:36:00,
2013-10-06 01:38:00,71.9,65.1,29.57,ESE,113,0.0,0.0,79,0.00,,,0.00,WUHU216HW,2013-10-06 05:38:00,
2013-10-06 01:39:00,70.8,64.7,29.77,SE,135,0.0,0.0,82,0.00,,,0.00,WUHU216HW,2013-10-06 05:39:00,
2013-10-06 01:40:00,71.7,64.9,29.57,ESE,113,0.0,0.0,79,0.00,,,0.00,WUHU216HW,2013-10-06 05:40:00,
2013-10-06 01:43:00,71.7,64.9,29.56,ESE,113,0.0,0.0,79,0.00,,,0.00,WUHU216HW,2013-10-06 05:43:00,
2013-10-06 01:44:00,70.7,64.9,29.77,SE,135,0.0,0.0,82,0.00,,,0.00,WUHU216HW,2013-10-06 05:44:00,
2013-10-06 01:45:00,71.7,64.9,29.57,ESE,113,0.0,0.0,80,0.00,,,0.00,WUHU216HW,2013-10-06 05:45:00,
2013-10-06 01:49:00,70.7,64.9,29.77,SE,135,0.0,0.0,82,0.00,,,0.00,WUHU216HW,2013-10-06 05:49:00,
2013-10-06 01:50:00,71.7,64.9,29.57,ESE,113,0.0,0.0,80,0.00,,,0.00,WUHU216HW,2013-10-06 05:50:00,
2013-10-06 01:51:00,71.7,64.9,29.56,ESE,113,0.0,0.0,80,0.00,,,0.00,WUHU216HW,2013-10-06 05:51:00,
2013-10-06 01:52:00,71.7,64.9,29.56,ESE,113,0.0,0.0,80,0.00,,,0.00,WUHU216HW,2013-10-06 05:52:00,
2013-10-06 01:54:00,70.5,64.7,29.77,SE,135,0.0,0.0,82,0.00,,,0.00,WUHU216HW,2013-10-06 05:54:00,
2013-10-06 01:55:00,71.7,64.9,29.57,ESE,113,0.0,0.0,80,0.00,,,0.00,WUHU216HW,2013-10-06 05:55:00,
2013-10-06 01:56:00,71.7,64.9,29.57,ESE,113,0.0,0.0,80,0.00,,,0.00,WUHU216HW,2013-10-06 05:56:00,
2013-10-06 01:57:00,71.7,64.9,29.56,ESE,113,0.0,0.0,80,0.00,,,0.00,WUHU216HW,2013-10-06 05:57:00,
2013-10-06 01:58:00,71.7,64.9,29.56,ESE,113,0.0,0.0,80,0.00,,,0.00,WUHU216HW,2013-10-06 05:58:00,
2013-10-06 01:59:00,70.5,64.7,29.77,SE,135,0.0,0.0,82,0.00,,,0.00,WUHU216HW,2013-10-06 05:59:00,
2013-10-06 02:00:00,71.6,65.1,29.56,ESE,113,0.0,0.0,80,0.00,,,0.00,WUHU216HW,2013-10-06 06:00:00,
2013-10-06 02:01:00,71.6,65.1,29.56,ESE,113,0.0,0.0,80,0.00,,,0.00,WUHU216HW,2013-10-06 06:01:00,
2013-10-06 02:02:00,71.6,65.1,29.56,ESE,113,0.0,0.0,80,0.00,,,0.00,WUHU216HW,2013-10-06 06:02:00,
2013-10-06 02:03:00,71.6,65.1,29.56,ESE,113,0.0,0.0,80,0.00,,,0.00,WUHU216HW,2013-10-06 06:03:00,
2013-10-06 02:04:00,70.5,64.7,29.77,SE,135,0.0,0.0,83,0.00,,,0.00,WUHU216HW,2013-10-06 06:04:00,
2013-10-06 02:05:00,71.6,65.1,29.56,ESE,113,0.0,0.0,80,0.00,,,0.00,WUHU216HW,2013-10-06 06:05:00,
2013-10-06 02:06:00,71.6,65.1,29.56,ESE,113,0.0,0.0,80,0.00,,,0.00,WUHU216HW,2013-10-06 06:06:00,
2013-10-06 02:07:00,71.6,65.1,29.56,ESE,113,0.0,0.0,80,0.00,,,0.00,WUHU216HW,2013-10-06 06:07:00,
2013-10-06 02:09:00,70.3,64.5,29.77,SE,135,0.0,0.0,83,0.00,,,0.00,WUHU216HW,2013-10-06 06:09:00,
2013-10-06 02:10:00,71.6,65.1,29.56,ESE,113,0.0,0.0,80,0.00,,,0.00,WUHU216HW,2013-10-06 06:10:00,
2013-10-06 02:11:00,71.6,65.1,29.56,ESE,113,0.0,0.0,80,0.00,,,0.00,WUHU216HW,2013-10-06 06:11:00,
2013-10-06 02:14:00,70.3,64.5,29.77,SE,135,0.0,0.0,83,0.00,,,0.00,WUHU216HW,2013-10-06 06:14:00,
2013-10-06 02:15:00,71.4,64.9,29.56,ESE,113,0.0,0.0,80,0.00,,,0.00,WUHU216HW,2013-10-06 06:15:00,
2013-10-06 02:16:00,71.4,64.9,29.56,ESE,113,0.0,0.0,80,0.00,,,0.00,WUHU216HW,2013-10-06 06:16:00,
2013-10-06 02:17:00,71.4,64.9,29.56,ESE,113,0.0,0.0,80,0.00,,,0.00,WUHU216HW,2013-10-06 06:17:00,
2013-10-06 02:19:00,70.1,65.0,29.76,SE,135,0.0,0.0,84,0.00,,,0.00,WUHU216HW,2013-10-06 06:19:00,
2013-10-06 02:24:00,70.1,65.0,29.76,SE,135,0.0,0.0,84,0.00,,,0.00,WUHU216HW,2013-10-06 06:24:00,
2013-10-06 02:25:00,71.4,64.9,29.56,ESE,113,0.0,0.0,80,0.00,,,0.00,WUHU216HW,2013-10-06 06:25:00,
2013-10-06 02:26:00,71.4,64.9,29.56,ESE,113,0.0,0.0,81,0.00,,,0.00,WUHU216HW,2013-10-06 06:26:00,
2013-10-06 02:27:00,71.4,64.9,29.56,ESE,113,0.0,0.0,81,0.00,,,0.00,WUHU216HW,2013-10-06 06:27:00,
2013-10-06 02:28:00,71.4,64.9,29.56,ESE,113,0.0,0.0,81,0.00,,,0.00,WUHU216HW,2013-10-06 06:28:00,
2013-10-06 02:29:00,70.1,65.0,29.76,SE,135,0.0,0.0,84,0.00,,,0.00,WUHU216HW,2013-10-06 06:29:00,
2013-10-06 02:31:00,71.2,65.1,29.57,ESE,113,0.0,0.0,81,0.00,,,0.00,WUHU216HW,2013-10-06 06:31:00,
2013-10-06 02:33:00,71.2,65.1,29.57,ESE,113,0.0,0.0,81,0.00,,,0.00,WUHU216HW,2013-10-06 06:33:00,
2013-10-06 02:34:00,69.9,64.8,29.76,SE,135,0.0,0.0,85,0.00,,,0.00,WUHU216HW,2013-10-06 06:34:00,
2013-10-06 02:35:00,71.2,65.1,29.56,ESE,113,0.0,0.0,81,0.00,,,0.00,WUHU216HW,2013-10-06 06:35:00,
2013-10-06 02:36:00,71.2,65.1,29.56,ESE,113,0.0,0.0,81,0.00,,,0.00,WUHU216HW,2013-10-06 06:36:00,
2013-10-06 02:37:00,71.2,65.1,29.56,ESE,113,0.0,0.0,81,0.00,,,0.00,WUHU216HW,2013-10-06 06:37:00,
2013-10-06 02:38:00,71.2,65.1,29.57,ESE,113,0.0,0.0,81,0.00,,,0.00,WUHU216HW,2013-10-06 06:38:00,
2013-10-06 02:39:00,69.9,64.8,29.76,SE,135,0.0,0.0,84,0.00,,,0.00,WUHU216HW,2013-10-06 06:39:00,
2013-10-06 02:40:00,71.2,65.1,29.56,ESE,113,0.0,0.0,81,0.00,,,0.00,WUHU216HW,2013-10-06 06:40:00,
2013-10-06 02:41:00,71.2,65.1,29.57,ESE,113,0.0,0.0,81,0.00,,,0.00,WUHU216HW,2013-10-06 06:41:00,
2013-10-06 02:42:00,71.2,65.1,29.56,ESE,113,0.0,0.0,81,0.00,,,0.00,WUHU216HW,2013-10-06 06:42:00,
2013-10-06 02:43:00,71.2,65.1,29.56,ESE,113,0.0,0.0,81,0.00,,,0.00,WUHU216HW,2013-10-06 06:43:00,
2013-10-06 02:44:00,69.8,65.0,29.75,SE,135,0.0,0.0,85,0.00,,,0.00,WUHU216HW,2013-10-06 06:44:00,
2013-10-06 02:45:00,71.2,65.1,29.56,ESE,113,0.0,0.0,81,0.00,,,0.00,WUHU216HW,2013-10-06 06:45:00,
2013-10-06 02:46:00,71.2,65.1,29.56,ESE,113,0.0,0.0,81,0.00,,,0.00,WUHU216HW,2013-10-06 06:46:00,
2013-10-06 02:47:00,71.2,65.1,29.56,ESE,113,0.0,0.0,81,0.00,,,0.00,WUHU216HW,2013-10-06 06:47:00,
2013-10-06 02:48:00,71.2,65.1,29.56,ESE,113,0.0,0.0,81,0.00,,,0.00,WUHU216HW,2013-10-06 06:48:00,
2013-10-06 02:49:00,69.6,64.8,29.75,SE,135,0.0,0.0,85,0.00,,,0.00,WUHU216HW,2013-10-06 06:49:00,
2013-10-06 02:51:00,71.2,65.1,29.56,ESE,113,0.0,0.0,81,0.00,,,0.00,WUHU216HW,2013-10-06 06:51:00,
2013-10-06 02:53:00,71.2,65.1,29.56,ESE,113,0.0,0.0,81,0.00,,,0.00,WUHU216HW,2013-10-06 06:53:00,
2013-10-06 02:55:00,69.6,64.8,29.75,SE,135,0.0,0.0,86,0.00,,,0.00,WUHU216HW,2013-10-06 06:55:00,
2013-10-06 02:56:00,71.2,65.1,29.56,ESE,113,0.0,0.0,81,0.00,,,0.00,WUHU216HW,2013-10-06 06:56:00,
2013-10-06 02:57:00,71.2,65.1,29.56,ESE,113,0.0,0.0,81,0.00,,,0.00,WUHU216HW,2013-10-06 06:57:00,
2013-10-06 02:58:00,71.2,65.1,29.56,ESE,113,0.0,0.0,81,0.00,,,0.00,WUHU216HW,2013-10-06 06:58:00,
2013-10-06 03:00:00,69.4,64.6,29.75,SE,135,0.0,0.0,85,0.00,,,0.00,WUHU216HW,2013-10-06 07:00:00,
2013-10-06 03:01:00,71.2,65.1,29.56,ESE,113,0.0,0.0,81,0.00,,,0.00,WUHU216HW,2013-10-06 07:01:00,
2013-10-06 03:02:00,71.2,65.1,29.56,ESE,113,0.0,0.0,81,0.00,,,0.00,WUHU216HW,2013-10-06 07:02:00,
2013-10-06 03:05:00,69.6,65.2,29.75,SE,135,0.0,0.0,86,0.00,,,0.00,WUHU216HW,2013-10-06 07:05:00,
2013-10-06 03:07:00,71.2,65.1,29.57,ESE,113,0.0,0.0,82,0.00,,,0.00,WUHU216HW,2013-10-06 07:07:00,
2013-10-06 03:08:00,71.2,65.1,29.57,ESE,113,0.0,0.0,82,0.00,,,0.00,WUHU216HW,2013-10-06 07:08:00,
2013-10-06 03:09:00,71.2,65.1,29.56,ESE,113,0.0,0.0,82,0.00,,,0.00,WUHU216HW,2013-10-06 07:09:00,
2013-10-06 03:10:00,69.4,64.6,29.75,SE,135,0.0,0.0,86,0.00,,,0.00,WUHU216HW,2013-10-06 07:10:00,
2013-10-06 03:12:00,71.0,65.2,29.56,ESE,113,0.0,0.0,82,0.00,,,0.00,WUHU216HW,2013-10-06 07:12:00,
2013-10-06 03:13:00,71.0,65.2,29.56,ESE,113,0.0,0.0,82,0.00,,,0.00,WUHU216HW,2013-10-06 07:13:00,
2013-10-06 03:14:00,71.0,65.2,29.56,ESE,113,0.0,0.0,82,0.00,,,0.00,WUHU216HW,2013-10-06 07:14:00,
2013-10-06 03:15:00,69.4,64.6,29.75,SE,135,0.0,0.0,86,0.00,,,0.00,WUHU216HW,2013-10-06 07:15:00,
2013-10-06 03:16:00,71.0,65.2,29.56,ESE,113,0.0,0.0,82,0.00,,,0.00,WUHU216HW,2013-10-06 07:16:00,
2013-10-06 03:17:00,70.8,65.0,29.56,ESE,113,0.0,0.0,82,0.00,,,0.00,WUHU216HW,2013-10-06 07:17:00,
2013-10-06 03:18:00,70.8,65.0,29.56,ESE,113,0.0,0.0,82,0.00,,,0.00,WUHU216HW,2013-10-06 07:18:00,
2013-10-06 03:19:00,70.8,65.0,29.56,ESE,113,0.0,0.0,82,0.00,,,0.00,WUHU216HW,2013-10-06 07:19:00,
2013-10-06 03:20:00,69.4,64.6,29.75,SE,135,0.0,0.0,86,0.00,,,0.00,WUHU216HW,2013-10-06 07:20:00,
2013-10-06 03:21:00,70.8,65.0,29.56,ESE,113,0.0,0.0,82,0.00,,,0.00,WUHU216HW,2013-10-06 07:21:00,
2013-10-06 03:25:00,69.4,64.6,29.75,SE,135,0.0,0.0,86,0.00,,,0.00,WUHU216HW,2013-10-06 07:25:00,
2013-10-06 03:30:00,69.2,64.8,29.74,SE,135,0.0,0.0,86,0.00,,,0.00,WUHU216HW,2013-10-06 07:30:00,
2013-10-06 03:35:00,69.0,64.6,29.75,SE,135,0.0,0.0,86,0.00,,,0.00,WUHU216HW,2013-10-06 07:35:00,
2013-10-06 03:37:00,70.8,65.0,29.57,ESE,113,0.0,0.0,83,0.00,,,0.00,WUHU216HW,2013-10-06 07:37:00,
2013-10-06 03:38:00,70.8,65.0,29.57,ESE,113,0.0,0.0,83,0.00,,,0.00,WUHU216HW,2013-10-06 07:38:00,
2013-10-06 03:40:00,69.0,64.6,29.75,SE,135,0.0,0.0,86,0.00,,,0.00,WUHU216HW,2013-10-06 07:40:00,
2013-10-06 03:41:00,70.7,65.2,29.57,ESE,113,0.0,0.0,83,0.00,,,0.00,WUHU216HW,2013-10-06 07:41:00,
2013-10-06 03:42:00,70.7,65.2,29.57,ESE,113,0.0,0.0,83,0.00,,,0.00,WUHU216HW,2013-10-06 07:42:00,
2013-10-06 03:43:00,70.7,65.2,29.57,ESE,113,0.0,0.0,83,0.00,,,0.00,WUHU216HW,2013-10-06 07:43:00,
2013-10-06 03:44:00,70.7,65.2,29.57,ESE,113,0.0,0.0,83,0.00,,,0.00,WUHU216HW,2013-10-06 07:44:00,
2013-10-06 03:45:00,70.7,65.2,29.56,ESE,113,0.0,0.0,83,0.00,,,0.00,WUHU216HW,2013-10-06 07:45:00,
2013-10-06 03:46:00,69.0,64.6,29.75,SE,135,0.0,0.0,86,0.00,,,0.00,WUHU216HW,2013-10-06 07:46:00,
2013-10-06 03:47:00,70.7,65.2,29.56,ESE,113,0.0,0.0,83,0.00,,,0.00,WUHU216HW,2013-10-06 07:47:00,
2013-10-06 03:48:00,70.7,65.2,29.56,ESE,113,0.0,0.0,83,0.00,,,0.00,WUHU216HW,2013-10-06 07:48:00,
2013-10-06 03:49:00,70.5,65.0,29.56,ESE,113,0.0,0.0,83,0.00,,,0.00,WUHU216HW,2013-10-06 07:49:00,
2013-10-06 03:50:00,70.5,65.0,29.56,ESE,113,0.0,0.0,83,0.00,,,0.00,WUHU216HW,2013-10-06 07:50:00,
2013-10-06 03:51:00,68.9,64.5,29.75,SE,135,0.0,0.0,86,0.00,,,0.00,WUHU216HW,2013-10-06 07:51:00,
2013-10-06 03:52:00,70.5,65.0,29.56,ESE,113,0.0,0.0,83,0.00,,,0.00,WUHU216HW,2013-10-06 07:52:00,
2013-10-06 03:53:00,70.5,65.0,29.57,ESE,113,0.0,0.0,83,0.00,,,0.00,WUHU216HW,2013-10-06 07:53:00,
2013-10-06 03:54:00,70.5,65.0,29.57,ESE,113,0.0,0.0,83,0.00,,,0.00,WUHU216HW,2013-10-06 07:54:00,
2013-10-06 03:55:00,70.5,65.0,29.57,ESE,113,0.0,0.0,83,0.00,,,0.00,WUHU216HW,2013-10-06 07:55:00,
2013-10-06 03:56:00,68.9,64.5,29.75,SE,135,0.0,0.0,86,0.00,,,0.00,WUHU216HW,2013-10-06 07:56:00,
2013-10-06 03:57:00,70.5,65.0,29.57,ESE,113,0.0,0.0,84,0.00,,,0.00,WUHU216HW,2013-10-06 07:57:00,
2013-10-06 03:58:00,70.5,65.0,29.57,ESE,113,0.0,0.0,84,0.00,,,0.00,WUHU216HW,2013-10-06 07:58:00,
2013-10-06 04:00:00,70.5,65.0,29.57,ESE,113,0.0,0.0,84,0.00,,,0.00,WUHU216HW,2013-10-06 08:00:00,
2013-10-06 04:01:00,68.7,64.6,29.75,SE,135,0.0,0.0,86,0.00,,,0.00,WUHU216HW,2013-10-06 08:01:00,
2013-10-06 04:02:00,70.3,65.2,29.57,ESE,113,0.0,0.0,84,0.00,,,0.00,WUHU216HW,2013-10-06 08:02:00,
2013-10-06 04:03:00,70.3,65.2,29.57,ESE,113,0.0,0.0,84,0.00,,,0.00,WUHU216HW,2013-10-06 08:03:00,
2013-10-06 04:04:00,70.3,65.2,29.57,ESE,113,0.0,0.0,84,0.00,,,0.00,WUHU216HW,2013-10-06 08:04:00,
2013-10-06 04:05:00,70.3,65.2,29.57,ESE,113,0.0,0.0,84,0.00,,,0.00,WUHU216HW,2013-10-06 08:05:00,
2013-10-06 04:06:00,68.7,64.6,29.75,SE,135,0.0,0.0,87,0.00,,,0.00,WUHU216HW,2013-10-06 08:06:00,
2013-10-06 04:11:00,68.7,64.6,29.75,SE,135,0.0,0.0,87,0.00,,,0.00,WUHU216HW,2013-10-06 08:11:00,
2013-10-06 04:12:00,70.3,65.2,29.57,ESE,113,0.0,0.0,84,0.00,,,0.00,WUHU216HW,2013-10-06 08:12:00,
2013-10-06 04:16:00,68.5,64.4,29.75,SE,135,0.0,0.0,87,0.00,,,0.00,WUHU216HW,2013-10-06 08:16:00,
2013-10-06 04:17:00,70.3,65.2,29.56,ESE,113,4.0,4.0,84,0.00,,,0.00,WUHU216HW,2013-10-06 08:17:00,
2013-10-06 04:18:00,70.3,65.2,29.56,ENE,68,0.0,4.0,84,0.00,,,0.00,WUHU216HW,2013-10-06 08:18:00,
2013-10-06 04:19:00,70.3,65.2,29.56,ENE,68,0.0,4.0,84,0.00,,,0.00,WUHU216HW,2013-10-06 08:19:00,
2013-10-06 04:21:00,68.5,64.4,29.75,SE,135,0.0,0.0,87,0.00,,,0.00,WUHU216HW,2013-10-06 08:21:00,
2013-10-06 04:22:00,70.1,65.0,29.56,ESE,113,0.0,4.0,84,0.00,,,0.00,WUHU216HW,2013-10-06 08:22:00,
2013-10-06 04:23:00,70.1,65.0,29.56,ESE,113,0.0,4.0,84,0.00,,,0.00,WUHU216HW,2013-10-06 08:23:00,
2013-10-06 04:24:00,70.1,65.0,29.56,ESE,113,0.0,4.0,84,0.00,,,0.00,WUHU216HW,2013-10-06 08:24:00,
2013-10-06 04:26:00,70.1,65.0,29.56,ESE,113,0.0,4.0,84,0.00,,,0.00,WUHU216HW,2013-10-06 08:26:00,
2013-10-06 04:27:00,68.3,64.3,29.75,SE,135,0.0,0.0,87,0.00,,,0.00,WUHU216HW,2013-10-06 08:27:00,
2013-10-06 04:28:00,70.1,65.0,29.56,ESE,113,0.0,0.0,83,0.00,,,0.00,WUHU216HW,2013-10-06 08:28:00,
2013-10-06 04:29:00,70.1,65.0,29.56,ESE,113,0.0,0.0,83,0.00,,,0.00,WUHU216HW,2013-10-06 08:29:00,
2013-10-06 04:30:00,70.1,65.0,29.56,ESE,113,0.0,0.0,84,0.00,,,0.00,WUHU216HW,2013-10-06 08:30:00,
2013-10-06 04:31:00,70.1,65.0,29.57,ESE,113,0.0,0.0,84,0.00,,,0.00,WUHU216HW,2013-10-06 08:31:00,
2013-10-06 04:32:00,68.3,64.3,29.75,SE,135,0.0,0.0,87,0.00,,,0.00,WUHU216HW,2013-10-06 08:32:00,
2013-10-06 04:37:00,68.1,64.1,29.75,SE,135,0.0,0.0,87,0.00,,,0.00,WUHU216HW,2013-10-06 08:37:00,
2013-10-06 04:42:00,67.8,63.7,29.75,SE,135,0.0,0.0,87,0.00,,,0.00,WUHU216HW,2013-10-06 08:42:00,
2013-10-06 04:47:00,67.8,63.7,29.75,SE,135,0.0,0.0,87,0.00,,,0.00,WUHU216HW,2013-10-06 08:47:00,
2013-10-06 04:52:00,67.6,63.6,29.75,SE,135,0.0,0.0,88,0.00,,,0.00,WUHU216HW,2013-10-06 08:52:00,
2013-10-06 04:57:00,67.6,63.6,29.75,SE,135,0.0,0.0,88,0.00,,,0.00,WUHU216HW,2013-10-06 08:57:00,
2013-10-06 05:03:00,67.2,63.5,29.75,SE,135,0.0,0.0,88,0.00,,,0.00,WUHU216HW,2013-10-06 09:03:00,
2013-10-06 05:08:00,67.2,63.5,29.75,SE,135,0.0,0.0,88,0.00,,,0.00,WUHU216HW,2013-10-06 09:08:00,
2013-10-06 05:13:00,67.1,63.3,29.75,SE,135,0.0,0.0,88,0.00,,,0.00,WUHU216HW,2013-10-06 09:13:00,
2013-10-06 05:18:00,66.9,63.2,29.75,SE,135,0.0,0.0,88,0.00,,,0.00,WUHU216HW,2013-10-06 09:18:00,
2013-10-06 05:19:00,69.4,64.3,29.58,SSW,203,0.0,0.0,84,0.00,,,0.00,WUHU216HW,2013-10-06 09:19:00,
2013-10-06 05:21:00,69.4,64.3,29.59,SSW,203,0.0,0.0,84,0.00,,,0.00,WUHU216HW,2013-10-06 09:21:00,
2013-10-06 05:22:00,69.2,64.1,29.59,SSW,203,0.0,0.0,84,0.00,,,0.00,WUHU216HW,2013-10-06 09:22:00,
2013-10-06 05:24:00,66.7,63.0,29.76,SE,135,0.0,0.0,88,0.00,,,0.00,WUHU216HW,2013-10-06 09:24:00,
2013-10-06 05:25:00,69.2,64.1,29.59,SSW,203,0.0,0.0,84,0.00,,,0.00,WUHU216HW,2013-10-06 09:25:00,
2013-10-06 05:26:00,69.2,64.1,29.59,SSW,203,0.0,0.0,84,0.00,,,0.00,WUHU216HW,2013-10-06 09:26:00,
2013-10-06 05:27:00,69.2,64.1,29.59,SSW,203,0.0,0.0,84,0.00,,,0.00,WUHU216HW,2013-10-06 09:27:00,
2013-10-06 05:29:00,66.5,62.8,29.75,SE,135,0.0,0.0,88,0.00,,,0.00,WUHU216HW,2013-10-06 09:29:00,
2013-10-06 05:30:00,69.0,64.3,29.59,SSW,203,0.0,0.0,85,0.00,,,0.00,WUHU216HW,2013-10-06 09:30:00,
2013-10-06 05:31:00,69.0,64.3,29.59,SSW,203,0.0,0.0,85,0.00,,,0.00,WUHU216HW,2013-10-06 09:31:00,
2013-10-06 05:32:00,69.0,64.3,29.59,SSW,203,0.0,0.0,85,0.00,,,0.00,WUHU216HW,2013-10-06 09:32:00,
2013-10-06 05:33:00,69.0,64.3,29.59,SSW,203,0.0,0.0,85,0.00,,,0.00,WUHU216HW,2013-10-06 09:33:00,
2013-10-06 05:34:00,69.0,64.3,29.59,SSW,203,0.0,0.0,85,0.00,,,0.00,WUHU216HW,2013-10-06 09:34:00,
2013-10-06 05:35:00,66.5,62.8,29.75,SE,135,0.0,0.0,88,0.00,,,0.00,WUHU216HW,2013-10-06 09:35:00,
2013-10-06 05:36:00,69.0,64.3,29.59,SSW,203,0.0,0.0,85,0.00,,,0.00,WUHU216HW,2013-10-06 09:36:00,
2013-10-06 05:37:00,69.0,64.3,29.59,SSW,203,0.0,0.0,85,0.00,,,0.00,WUHU216HW,2013-10-06 09:37:00,
2013-10-06 05:38:00,69.0,64.3,29.59,SSW,203,0.0,0.0,85,0.00,,,0.00,WUHU216HW,2013-10-06 09:38:00,
2013-10-06 05:39:00,69.0,64.3,29.59,SSW,203,0.0,0.0,85,0.00,,,0.00,WUHU216HW,2013-10-06 09:39:00,
2013-10-06 05:40:00,66.3,62.6,29.75,SE,135,0.0,0.0,88,0.00,,,0.00,WUHU216HW,2013-10-06 09:40:00,
2013-10-06 05:41:00,69.0,64.3,29.59,SSW,203,0.0,0.0,85,0.00,,,0.00,WUHU216HW,2013-10-06 09:41:00,
2013-10-06 05:42:00,69.0,64.3,29.59,SSW,203,0.0,0.0,85,0.00,,,0.00,WUHU216HW,2013-10-06 09:42:00,
2013-10-06 05:43:00,69.0,64.3,29.59,SSW,203,0.0,0.0,85,0.00,,,0.00,WUHU216HW,2013-10-06 09:43:00,
2013-10-06 05:44:00,69.0,64.3,29.59,SSW,203,0.0,0.0,85,0.00,,,0.00,WUHU216HW,2013-10-06 09:44:00,
2013-10-06 05:45:00,66.3,62.6,29.75,SE,135,0.0,0.0,88,0.00,,,0.00,WUHU216HW,2013-10-06 09:45:00,
2013-10-06 05:46:00,69.0,64.3,29.59,SSW,203,0.0,0.0,85,0.00,,,0.00,WUHU216HW,2013-10-06 09:46:00,
2013-10-06 05:47:00,69.0,64.3,29.59,SSW,203,0.0,0.0,85,0.00,,,0.00,WUHU216HW,2013-10-06 09:47:00,
2013-10-06 05:48:00,69.0,64.3,29.59,SSW,203,0.0,0.0,86,0.00,,,0.00,WUHU216HW,2013-10-06 09:48:00,
2013-10-06 05:49:00,69.0,64.3,29.59,SSW,203,0.0,0.0,86,0.00,,,0.00,WUHU216HW,2013-10-06 09:49:00,
2013-10-06 05:50:00,66.3,62.6,29.75,SE,135,0.0,0.0,89,0.00,,,0.00,WUHU216HW,2013-10-06 09:50:00,
2013-10-06 05:51:00,69.0,64.3,29.59,SSW,203,0.0,0.0,86,0.00,,,0.00,WUHU216HW,2013-10-06 09:51:00,
2013-10-06 05:52:00,68.9,64.5,29.59,SSW,203,0.0,0.0,86,0.00,,,0.00,WUHU216HW,2013-10-06 09:52:00,
2013-10-06 05:53:00,68.9,64.5,29.59,SSW,203,0.0,0.0,86,0.00,,,0.00,WUHU216HW,2013-10-06 09:53:00,
2013-10-06 05:54:00,68.9,64.5,29.59,SSW,203,0.0,0.0,86,0.00,,,0.00,WUHU216HW,2013-10-06 09:54:00,
2013-10-06 05:55:00,66.0,62.6,29.76,SE,135,0.0,0.0,89,0.00,,,0.00,WUHU216HW,2013-10-06 09:55:00,
2013-10-06 05:57:00,68.9,64.5,29.59,SSW,203,0.0,0.0,86,0.00,,,0.00,WUHU216HW,2013-10-06 09:57:00,
2013-10-06 05:58:00,68.9,64.5,29.59,SSW,203,0.0,0.0,86,0.00,,,0.00,WUHU216HW,2013-10-06 09:58:00,
2013-10-06 05:59:00,68.9,64.5,29.59,SSW,203,0.0,0.0,86,0.00,,,0.00,WUHU216HW,2013-10-06 09:59:00,
2013-10-06 06:00:00,66.0,62.6,29.76,SE,135,0.0,0.0,89,0.00,,,0.00,WUHU216HW,2013-10-06 10:00:00,
2013-10-06 06:01:00,68.9,64.5,29.59,SSW,203,0.0,0.0,86,0.00,,,0.00,WUHU216HW,2013-10-06 10:01:00,
2013-10-06 06:02:00,68.9,64.5,29.59,SSW,203,0.0,0.0,86,0.00,,,0.00,WUHU216HW,2013-10-06 10:02:00,
2013-10-06 06:03:00,68.9,64.5,29.59,SSW,203,0.0,0.0,86,0.00,,,0.00,WUHU216HW,2013-10-06 10:03:00,
2013-10-06 06:05:00,66.0,62.6,29.76,SE,135,0.0,0.0,89,0.00,,,0.00,WUHU216HW,2013-10-06 10:05:00,
2013-10-06 06:06:00,68.9,64.5,29.59,SSW,203,0.0,0.0,86,0.00,,,0.00,WUHU216HW,2013-10-06 10:06:00,
2013-10-06 06:07:00,68.9,64.5,29.60,SSW,203,0.0,0.0,86,0.00,,,0.00,WUHU216HW,2013-10-06 10:07:00,
2013-10-06 06:08:00,68.9,64.5,29.60,SSW,203,0.0,0.0,86,0.00,,,0.00,WUHU216HW,2013-10-06 10:08:00,
2013-10-06 06:09:00,68.9,64.5,29.59,SSW,203,0.0,0.0,86,0.00,,,0.00,WUHU216HW,2013-10-06 10:09:00,
2013-10-06 06:10:00,68.9,64.5,29.59,SSW,203,0.0,0.0,86,0.00,,,0.00,WUHU216HW,2013-10-06 10:10:00,
2013-10-06 06:11:00,65.8,62.4,29.76,SE,135,0.0,0.0,89,0.00,,,0.00,WUHU216HW,2013-10-06 10:11:00,
2013-10-06 06:12:00,68.9,64.5,29.59,SSW,203,0.0,0.0,86,0.00,,,0.00,WUHU216HW,2013-10-06 10:12:00,
2013-10-06 06:16:00,66.0,62.6,29.76,SE,135,0.0,0.0,89,0.00,,,0.00,WUHU216HW,2013-10-06 10:16:00,
2013-10-06 06:18:00,68.7,64.3,29.60,SSW,203,0.0,0.0,86,0.00,,,0.00,WUHU216HW,2013-10-06 10:18:00,
2013-10-06 06:19:00,68.7,64.3,29.60,SSW,203,0.0,0.0,86,0.00,,,0.00,WUHU216HW,2013-10-06 10:19:00,
2013-10-06 06:21:00,66.0,62.6,29.76,SE,135,0.0,0.0,89,0.00,,,0.00,WUHU216HW,2013-10-06 10:21:00,
2013-10-06 06:22:00,68.9,64.5,29.60,SSW,203,0.0,0.0,86,0.00,,,0.00,WUHU216HW,2013-10-06 10:22:00,
2013-10-06 06:24:00,68.7,64.3,29.59,SSW,203,0.0,0.0,86,0.00,,,0.00,WUHU216HW,2013-10-06 10:24:00,
2013-10-06 06:26:00,66.3,62.9,29.76,SE,135,0.0,0.0,89,0.00,,,0.00,WUHU216HW,2013-10-06 10:26:00,
2013-10-06 06:28:00,68.9,64.5,29.60,SSW,203,0.0,0.0,86,0.00,,,0.00,WUHU216HW,2013-10-06 10:28:00,
2013-10-06 06:31:00,66.3,62.9,29.76,SE,135,0.0,0.0,89,0.00,,,0.00,WUHU216HW,2013-10-06 10:31:00,
2013-10-06 06:34:00,68.7,64.3,29.60,SSW,203,0.0,0.0,86,0.00,,,0.00,WUHU216HW,2013-10-06 10:34:00,
2013-10-06 06:36:00,66.3,62.9,29.76,SE,135,0.0,0.0,89,0.00,,,0.00,WUHU216HW,2013-10-06 10:36:00,
2013-10-06 06:41:00,66.5,63.1,29.76,SE,135,0.0,0.0,90,0.00,,,0.00,WUHU216HW,2013-10-06 10:41:00,
2013-10-06 06:42:00,68.7,64.3,29.60,SSW,203,0.0,0.0,86,0.00,,,0.00,WUHU216HW,2013-10-06 10:42:00,
2013-10-06 06:43:00,68.7,64.3,29.60,SSW,203,0.0,0.0,86,0.00,,,0.00,WUHU216HW,2013-10-06 10:43:00,
2013-10-06 06:44:00,68.7,64.3,29.60,SSW,203,0.0,0.0,86,0.00,,,0.00,WUHU216HW,2013-10-06 10:44:00,
2013-10-06 06:45:00,68.7,64.3,29.60,SSW,203,0.0,0.0,86,0.00,,,0.00,WUHU216HW,2013-10-06 10:45:00,
2013-10-06 06:47:00,66.7,63.6,29.76,SE,135,0.0,0.0,90,0.00,,,0.00,WUHU216HW,2013-10-06 10:47:00,
2013-10-06 06:48:00,68.7,64.3,29.60,SSW,203,0.0,0.0,86,0.00,,,0.00,WUHU216HW,2013-10-06 10:48:00,
2013-10-06 06:49:00,68.7,64.3,29.60,SSW,203,0.0,0.0,86,0.00,,,0.00,WUHU216HW,2013-10-06 10:49:00,
2013-10-06 06:50:00,68.5,64.4,29.60,SSW,203,0.0,0.0,87,0.00,,,0.00,WUHU216HW,2013-10-06 10:50:00,
2013-10-06 06:51:00,68.5,64.4,29.60,SSW,203,0.0,0.0,87,0.00,,,0.00,WUHU216HW,2013-10-06 10:51:00,
2013-10-06 06:52:00,66.7,63.6,29.76,SE,135,0.0,0.0,90,0.00,,,0.00,WUHU216HW,2013-10-06 10:52:00,
2013-10-06 06:53:00,68.5,64.4,29.60,SSW,203,0.0,0.0,87,0.00,,,0.00,WUHU216HW,2013-10-06 10:53:00,
2013-10-06 06:54:00,68.5,64.4,29.60,SSW,203,0.0,0.0,87,0.00,,,0.00,WUHU216HW,2013-10-06 10:54:00,
2013-10-06 06:55:00,68.5,64.4,29.60,SSW,203,0.0,0.0,87,0.00,,,0.00,WUHU216HW,2013-10-06 10:55:00,
2013-10-06 06:56:00,68.5,64.4,29.60,SSW,203,0.0,0.0,87,0.00,,,0.00,WUHU216HW,2013-10-06 10:56:00,
2013-10-06 06:57:00,66.9,63.8,29.76,SE,135,0.0,0.0,90,0.00,,,0.00,WUHU216HW,2013-10-06 10:57:00,
2013-10-06 06:58:00,68.5,64.4,29.60,SSW,203,0.0,0.0,87,0.00,,,0.00,WUHU216HW,2013-10-06 10:58:00,
2013-10-06 06:59:00,68.5,64.4,29.59,SSW,203,0.0,0.0,87,0.00,,,0.00,WUHU216HW,2013-10-06 10:59:00,
2013-10-06 07:00:00,68.5,64.4,29.60,SSW,203,0.0,0.0,87,0.00,,,0.00,WUHU216HW,2013-10-06 11:00:00,
2013-10-06 07:02:00,66.9,63.8,29.76,SE,135,0.0,0.0,90,0.00,,,0.00,WUHU216HW,2013-10-06 11:02:00,
2013-10-06 07:04:00,68.5,64.4,29.60,SSW,203,0.0,0.0,87,0.00,,,0.00,WUHU216HW,2013-10-06 11:04:00,
2013-10-06 07:05:00,68.3,64.3,29.60,SSW,203,0.0,0.0,87,0.00,,,0.00,WUHU216HW,2013-10-06 11:05:00,
2013-10-06 07:07:00,66.9,63.8,29.76,SE,135,0.0,0.0,90,0.00,,,0.00,WUHU216HW,2013-10-06 11:07:00,
2013-10-06 07:08:00,68.3,64.3,29.60,SSW,203,0.0,0.0,87,0.00,,,0.00,WUHU216HW,2013-10-06 11:08:00,
2013-10-06 07:09:00,68.3,64.3,29.60,SSW,203,0.0,0.0,87,0.00,,,0.00,WUHU216HW,2013-10-06 11:09:00,
2013-10-06 07:10:00,68.3,64.3,29.60,SSW,203,0.0,0.0,87,0.00,,,0.00,WUHU216HW,2013-10-06 11:10:00,
2013-10-06 07:12:00,66.9,63.8,29.76,SE,135,0.0,0.0,91,0.00,,,0.00,WUHU216HW,2013-10-06 11:12:00,
2013-10-06 07:13:00,68.1,64.1,29.60,SSW,203,0.0,0.0,87,0.00,,,0.00,WUHU216HW,2013-10-06 11:13:00,
2013-10-06 07:14:00,68.1,64.1,29.60,SSW,203,0.0,0.0,87,0.00,,,0.00,WUHU216HW,2013-10-06 11:14:00,
2013-10-06 07:15:00,68.1,64.1,29.60,SSW,203,0.0,0.0,87,0.00,,,0.00,WUHU216HW,2013-10-06 11:15:00,
2013-10-06 07:16:00,68.1,64.1,29.59,SSW,203,0.0,0.0,87,0.00,,,0.00,WUHU216HW,2013-10-06 11:16:00,
2013-10-06 07:17:00,66.9,63.8,29.76,SE,135,0.0,0.0,91,0.00,,,0.00,WUHU216HW,2013-10-06 11:17:00,
2013-10-06 07:19:00,68.0,63.9,29.60,SSW,203,0.0,0.0,87,0.00,,,0.00,WUHU216HW,2013-10-06 11:19:00,
2013-10-06 07:22:00,66.9,63.8,29.76,SE,135,0.0,0.0,91,0.00,,,0.00,WUHU216HW,2013-10-06 11:22:00,
2013-10-06 07:24:00,67.8,63.7,29.59,SSW,203,0.0,0.0,87,0.00,,,0.00,WUHU216HW,2013-10-06 11:24:00,
2013-10-06 07:25:00,67.8,63.7,29.59,SSW,203,0.0,0.0,87,0.00,,,0.00,WUHU216HW,2013-10-06 11:25:00,
2013-10-06 07:27:00,67.8,63.7,29.59,SSW,203,0.0,0.0,87,0.00,,,0.00,WUHU216HW,2013-10-06 11:27:00,
2013-10-06 07:28:00,66.9,63.8,29.76,SE,135,0.0,0.0,91,0.00,,,0.00,WUHU216HW,2013-10-06 11:28:00,
2013-10-06 07:29:00,67.8,63.7,29.59,SSW,203,0.0,0.0,88,0.00,,,0.00,WUHU216HW,2013-10-06 11:29:00,
2013-10-06 07:30:00,67.8,63.7,29.59,SSW,203,0.0,0.0,88,0.00,,,0.00,WUHU216HW,2013-10-06 11:30:00,
2013-10-06 07:32:00,67.8,63.7,29.59,SSW,203,0.0,0.0,88,0.00,,,0.00,WUHU216HW,2013-10-06 11:32:00,
2013-10-06 07:33:00,66.9,63.8,29.76,SE,135,0.0,0.0,91,0.00,,,0.00,WUHU216HW,2013-10-06 11:33:00,
2013-10-06 07:35:00,67.6,63.6,29.59,SSW,203,0.0,0.0,88,0.00,,,0.00,WUHU216HW,2013-10-06 11:35:00,
2013-10-06 07:38:00,66.9,63.8,29.77,SE,135,0.0,0.0,91,0.00,,,0.00,WUHU216HW,2013-10-06 11:38:00,
2013-10-06 07:43:00,66.9,64.1,29.77,SE,135,0.0,0.0,91,0.00,,,0.00,WUHU216HW,2013-10-06 11:43:00,
2013-10-06 07:47:00,67.6,63.6,29.59,SSW,203,0.0,0.0,88,0.00,,,0.00,WUHU216HW,2013-10-06 11:47:00,
2013-10-06 07:48:00,67.1,64.3,29.77,SE,135,0.0,0.0,91,0.00,,,0.00,WUHU216HW,2013-10-06 11:48:00,
2013-10-06 07:49:00,67.6,63.6,29.59,SSW,203,0.0,0.0,88,0.00,,,0.00,WUHU216HW,2013-10-06 11:49:00,
2013-10-06 07:51:00,67.6,63.6,29.59,SSW,203,0.0,0.0,88,0.00,,,0.00,WUHU216HW,2013-10-06 11:51:00,
2013-10-06 07:52:00,67.6,63.6,29.60,SSW,203,0.0,0.0,88,0.00,,,0.00,WUHU216HW,2013-10-06 11:52:00,
2013-10-06 07:53:00,67.1,64.3,29.77,SE,135,0.0,0.0,91,0.00,,,0.00,WUHU216HW,2013-10-06 11:53:00,
2013-10-06 07:54:00,67.6,63.6,29.59,SSW,203,0.0,0.0,88,0.00,,,0.00,WUHU216HW,2013-10-06 11:54:00,
2013-10-06 07:55:00,67.6,63.6,29.59,SSW,203,0.0,0.0,88,0.00,,,0.00,WUHU216HW,2013-10-06 11:55:00,
2013-10-06 07:56:00,67.6,63.6,29.59,SSW,203,0.0,0.0,88,0.00,,,0.00,WUHU216HW,2013-10-06 11:56:00,
2013-10-06 07:57:00,67.6,63.6,29.59,SSW,203,0.0,0.0,88,0.00,,,0.00,WUHU216HW,2013-10-06 11:57:00,
2013-10-06 07:58:00,67.1,64.3,29.77,SE,135,0.0,0.0,91,0.00,,,0.00,WUHU216HW,2013-10-06 11:58:00,
2013-10-06 07:59:00,67.6,63.6,29.59,SSW,203,0.0,0.0,88,0.00,,,0.00,WUHU216HW,2013-10-06 11:59:00,
2013-10-06 08:00:00,67.6,63.6,29.59,SSW,203,0.0,0.0,88,0.00,,,0.00,WUHU216HW,2013-10-06 12:00:00,
2013-10-06 08:01:00,67.6,63.6,29.59,SSW,203,0.0,0.0,88,0.00,,,0.00,WUHU216HW,2013-10-06 12:01:00,
2013-10-06 08:02:00,67.6,63.6,29.59,SSW,203,0.0,0.0,88,0.00,,,0.00,WUHU216HW,2013-10-06 12:02:00,
2013-10-06 08:03:00,67.2,64.5,29.77,SE,135,0.0,0.0,91,0.00,,,0.00,WUHU216HW,2013-10-06 12:03:00,
2013-10-06 08:04:00,67.6,63.6,29.59,SSW,203,0.0,0.0,88,0.00,,,0.00,WUHU216HW,2013-10-06 12:04:00,
2013-10-06 08:05:00,67.6,63.6,29.59,SSW,203,0.0,0.0,88,0.00,,,0.00,WUHU216HW,2013-10-06 12:05:00,
2013-10-06 08:06:00,67.6,63.6,29.59,SSW,203,0.0,0.0,88,0.00,,,0.00,WUHU216HW,2013-10-06 12:06:00,
2013-10-06 08:07:00,67.6,63.6,29.59,SSW,203,0.0,0.0,88,0.00,,,0.00,WUHU216HW,2013-10-06 12:07:00,
2013-10-06 08:08:00,67.4,63.7,29.59,SSW,203,0.0,0.0,88,0.00,,,0.00,WUHU216HW,2013-10-06 12:08:00,
2013-10-06 08:09:00,67.2,64.5,29.77,SE,135,0.0,0.0,92,0.00,,,0.00,WUHU216HW,2013-10-06 12:09:00,
2013-10-06 08:10:00,67.4,63.7,29.59,SSW,203,0.0,0.0,88,0.00,,,0.00,WUHU216HW,2013-10-06 12:10:00,
2013-10-06 08:11:00,67.4,63.7,29.59,SSW,203,0.0,0.0,88,0.00,,,0.00,WUHU216HW,2013-10-06 12:11:00,
2013-10-06 08:13:00,67.4,63.7,29.59,SSW,203,0.0,0.0,88,0.00,,,0.00,WUHU216HW,2013-10-06 12:13:00,
2013-10-06 08:14:00,67.4,65.0,29.77,SE,135,0.0,0.0,92,0.00,,,0.00,WUHU216HW,2013-10-06 12:14:00,
2013-10-06 08:15:00,67.4,63.7,29.59,SSW,203,0.0,0.0,88,0.00,,,0.00,WUHU216HW,2013-10-06 12:15:00,
2013-10-06 08:16:00,67.4,63.7,29.59,SSW,203,0.0,0.0,88,0.00,,,0.00,WUHU216HW,2013-10-06 12:16:00,
2013-10-06 08:17:00,67.4,63.7,29.59,SSW,203,0.0,0.0,88,0.00,,,0.00,WUHU216HW,2013-10-06 12:17:00,
2013-10-06 08:18:00,67.4,63.7,29.59,SSW,203,0.0,0.0,88,0.00,,,0.00,WUHU216HW,2013-10-06 12:18:00,
2013-10-06 08:19:00,67.6,65.1,29.77,SE,135,0.0,0.0,92,0.00,,,0.00,WUHU216HW,2013-10-06 12:19:00,
2013-10-06 08:20:00,67.2,63.5,29.59,SSW,203,0.0,0.0,88,0.00,,,0.00,WUHU216HW,2013-10-06 12:20:00,
2013-10-06 08:21:00,67.2,63.5,29.59,SSW,203,0.0,0.0,88,0.00,,,0.00,WUHU216HW,2013-10-06 12:21:00,
2013-10-06 08:22:00,67.2,63.5,29.59,SSW,203,0.0,0.0,88,0.00,,,0.00,WUHU216HW,2013-10-06 12:22:00,
2013-10-06 08:23:00,67.2,63.5,29.59,SSW,203,0.0,0.0,88,0.00,,,0.00,WUHU216HW,2013-10-06 12:23:00,
2013-10-06 08:24:00,67.6,65.1,29.78,SE,135,0.0,0.0,92,0.00,,,0.00,WUHU216HW,2013-10-06 12:24:00,
2013-10-06 08:25:00,67.2,63.5,29.59,SSW,203,0.0,0.0,88,0.00,,,0.00,WUHU216HW,2013-10-06 12:25:00,
2013-10-06 08:26:00,67.2,63.5,29.59,SSW,203,0.0,0.0,88,0.00,,,0.00,WUHU216HW,2013-10-06 12:26:00,
2013-10-06 08:27:00,67.2,63.5,29.59,SSW,203,0.0,0.0,88,0.00,,,0.00,WUHU216HW,2013-10-06 12:27:00,
2013-10-06 08:28:00,67.2,63.5,29.59,SSW,203,0.0,0.0,89,0.00,,,0.00,WUHU216HW,2013-10-06 12:28:00,
2013-10-06 08:29:00,67.4,65.0,29.78,SE,135,0.0,0.0,92,0.00,,,0.00,WUHU216HW,2013-10-06 12:29:00,
2013-10-06 08:30:00,67.2,63.5,29.59,SSW,203,0.0,0.0,88,0.00,,,0.00,WUHU216HW,2013-10-06 12:30:00,
2013-10-06 08:31:00,67.2,63.5,29.59,SSW,203,0.0,0.0,88,0.00,,,0.00,WUHU216HW,2013-10-06 12:31:00,
2013-10-06 08:32:00,67.2,63.5,29.59,SSW,203,0.0,0.0,89,0.00,,,0.00,WUHU216HW,2013-10-06 12:32:00,
2013-10-06 08:33:00,67.2,63.5,29.59,SSW,203,0.0,0.0,89,0.00,,,0.00,WUHU216HW,2013-10-06 12:33:00,
2013-10-06 08:34:00,67.6,65.1,29.77,SE,135,0.0,0.0,92,0.00,,,0.00,WUHU216HW,2013-10-06 12:34:00,
2013-10-06 08:35:00,67.1,63.7,29.59,SSW,203,0.0,0.0,89,0.00,,,0.00,WUHU216HW,2013-10-06 12:35:00,
2013-10-06 08:36:00,67.1,63.7,29.59,SSW,203,0.0,0.0,89,0.00,,,0.00,WUHU216HW,2013-10-06 12:36:00,
2013-10-06 08:37:00,67.1,63.7,29.60,SSW,203,0.0,0.0,89,0.00,,,0.00,WUHU216HW,2013-10-06 12:37:00,
2013-10-06 08:38:00,67.1,63.7,29.60,SSW,203,0.0,0.0,89,0.00,,,0.00,WUHU216HW,2013-10-06 12:38:00,
2013-10-06 08:39:00,67.6,65.1,29.77,SE,135,0.0,0.0,92,0.00,,,0.00,WUHU216HW,2013-10-06 12:39:00,
2013-10-06 08:40:00,67.1,63.7,29.60,SSW,203,0.0,0.0,89,0.00,,,0.00,WUHU216HW,2013-10-06 12:40:00,
2013-10-06 08:41:00,67.1,63.7,29.60,SSW,203,0.0,0.0,89,0.00,,,0.00,WUHU216HW,2013-10-06 12:41:00,
2013-10-06 08:42:00,67.1,63.7,29.60,SSW,203,0.0,0.0,89,0.00,,,0.00,WUHU216HW,2013-10-06 12:42:00,
2013-10-06 08:44:00,67.6,65.1,29.78,SE,135,0.0,0.0,92,0.00,,,0.00,WUHU216HW,2013-10-06 12:44:00,
2013-10-06 08:49:00,67.6,65.1,29.78,SE,135,0.0,0.0,92,0.00,,,0.00,WUHU216HW,2013-10-06 12:49:00,
2013-10-06 08:54:00,67.8,65.3,29.78,SE,135,0.0,0.0,92,0.00,,,0.00,WUHU216HW,2013-10-06 12:54:00,
2013-10-06 08:59:00,67.8,65.3,29.78,SE,135,0.0,0.0,92,0.00,,,0.00,WUHU216HW,2013-10-06 12:59:00,
2013-10-06 09:00:00,66.7,63.3,29.60,SSW,203,0.0,0.0,89,0.00,,,0.00,WUHU216HW,2013-10-06 13:00:00,
2013-10-06 09:02:00,66.7,63.3,29.60,SSW,203,0.0,0.0,89,0.00,,,0.00,WUHU216HW,2013-10-06 13:02:00,
2013-10-06 09:03:00,66.7,63.3,29.60,SSW,203,0.0,0.0,89,0.00,,,0.00,WUHU216HW,2013-10-06 13:03:00,
2013-10-06 09:04:00,66.7,63.3,29.60,SSW,203,0.0,0.0,89,0.00,,,0.00,WUHU216HW,2013-10-06 13:04:00,
2013-10-06 09:05:00,68.1,65.7,29.78,SE,135,0.0,0.0,92,0.00,,,0.00,WUHU216HW,2013-10-06 13:05:00,
2013-10-06 09:06:00,66.7,63.3,29.60,SSW,203,0.0,0.0,89,0.00,,,0.00,WUHU216HW,2013-10-06 13:06:00,
2013-10-06 09:07:00,66.7,63.3,29.60,SSW,203,0.0,0.0,89,0.00,,,0.00,WUHU216HW,2013-10-06 13:07:00,
2013-10-06 09:08:00,66.7,63.3,29.60,SSW,203,0.0,0.0,89,0.00,,,0.00,WUHU216HW,2013-10-06 13:08:00,
2013-10-06 09:09:00,66.7,63.3,29.60,SSW,203,0.0,0.0,89,0.00,,,0.00,WUHU216HW,2013-10-06 13:09:00,
2013-10-06 09:10:00,68.1,65.7,29.78,SE,135,0.0,0.0,92,0.00,,,0.00,WUHU216HW,2013-10-06 13:10:00,
2013-10-06 09:11:00,66.7,63.3,29.60,SSW,203,0.0,0.0,89,0.00,,,0.00,WUHU216HW,2013-10-06 13:11:00,
2013-10-06 09:12:00,66.7,63.3,29.60,SSW,203,0.0,0.0,89,0.00,,,0.00,WUHU216HW,2013-10-06 13:12:00,
2013-10-06 09:13:00,66.5,63.1,29.60,SSW,203,0.0,0.0,89,0.00,,,0.00,WUHU216HW,2013-10-06 13:13:00,
2013-10-06 09:14:00,66.5,63.1,29.60,SSW,203,0.0,0.0,89,0.00,,,0.00,WUHU216HW,2013-10-06 13:14:00,
2013-10-06 09:15:00,68.3,65.9,29.78,SE,135,0.0,0.0,92,0.00,,,0.00,WUHU216HW,2013-10-06 13:15:00,
2013-10-06 09:16:00,66.5,63.1,29.60,SSW,203,0.0,0.0,89,0.00,,,0.00,WUHU216HW,2013-10-06 13:16:00,
2013-10-06 09:17:00,66.5,63.1,29.60,SSW,203,0.0,0.0,89,0.00,,,0.00,WUHU216HW,2013-10-06 13:17:00,
2013-10-06 09:18:00,66.5,63.1,29.60,SSW,203,0.0,0.0,89,0.00,,,0.00,WUHU216HW,2013-10-06 13:18:00,
2013-10-06 09:19:00,66.5,63.1,29.60,SSW,203,0.0,0.0,89,0.00,,,0.00,WUHU216HW,2013-10-06 13:19:00,
2013-10-06 09:20:00,68.5,66.0,29.78,SE,135,0.0,0.0,92,0.00,,,0.00,WUHU216HW,2013-10-06 13:20:00,
2013-10-06 09:25:00,68.7,66.2,29.79,SE,135,0.0,0.0,92,0.00,,,0.00,WUHU216HW,2013-10-06 13:25:00,
2013-10-06 09:28:00,66.3,62.9,29.60,SSW,203,0.0,0.0,89,0.00,,,0.00,WUHU216HW,2013-10-06 13:28:00,
2013-10-06 09:29:00,66.3,62.9,29.60,SSW,203,0.0,0.0,89,0.00,,,0.00,WUHU216HW,2013-10-06 13:29:00,
2013-10-06 09:30:00,68.9,66.4,29.78,SE,135,0.0,0.0,92,0.00,,,0.00,WUHU216HW,2013-10-06 13:30:00,
2013-10-06 09:31:00,66.3,62.9,29.60,SSW,203,0.0,0.0,89,0.00,,,0.00,WUHU216HW,2013-10-06 13:31:00,
2013-10-06 09:32:00,66.0,62.6,29.60,SSW,203,0.0,0.0,89,0.00,,,0.00,WUHU216HW,2013-10-06 13:32:00,
2013-10-06 09:33:00,66.0,62.6,29.60,SSW,203,0.0,0.0,89,0.00,,,0.00,WUHU216HW,2013-10-06 13:33:00,
2013-10-06 09:35:00,69.0,66.6,29.79,SE,135,0.0,0.0,92,0.00,,,0.00,WUHU216HW,2013-10-06 13:35:00,
2013-10-06 09:36:00,66.0,62.6,29.60,SSW,203,0.0,0.0,89,0.00,,,0.00,WUHU216HW,2013-10-06 13:36:00,
2013-10-06 09:38:00,66.0,62.6,29.60,SSW,203,0.0,0.0,89,0.00,,,0.00,WUHU216HW,2013-10-06 13:38:00,
2013-10-06 09:39:00,66.0,62.6,29.60,SSW,203,0.0,0.0,89,0.00,,,0.00,WUHU216HW,2013-10-06 13:39:00,
2013-10-06 09:41:00,69.6,67.1,29.78,SE,135,0.0,0.0,92,0.00,,,0.00,WUHU216HW,2013-10-06 13:41:00,
2013-10-06 09:42:00,66.0,62.6,29.61,SSW,203,0.0,0.0,90,0.00,,,0.00,WUHU216HW,2013-10-06 13:42:00,
2013-10-06 09:43:00,65.8,62.8,29.60,SSW,203,0.0,0.0,90,0.00,,,0.00,WUHU216HW,2013-10-06 13:43:00,
2013-10-06 09:44:00,65.8,62.8,29.61,SSW,203,0.0,0.0,90,0.00,,,0.00,WUHU216HW,2013-10-06 13:44:00,
2013-10-06 09:45:00,65.8,62.8,29.61,SSW,203,0.0,0.0,90,0.00,,,0.00,WUHU216HW,2013-10-06 13:45:00,
2013-10-06 09:46:00,69.6,67.1,29.79,SE,135,0.0,0.0,92,0.00,,,0.00,WUHU216HW,2013-10-06 13:46:00,
2013-10-06 09:47:00,65.8,62.8,29.60,SSW,203,0.0,0.0,90,0.00,,,0.00,WUHU216HW,2013-10-06 13:47:00,
2013-10-06 09:48:00,65.8,62.8,29.60,SSW,203,0.0,0.0,90,0.00,,,0.00,WUHU216HW,2013-10-06 13:48:00,
2013-10-06 09:49:00,65.8,62.8,29.60,SSW,203,0.0,0.0,90,0.00,,,0.00,WUHU216HW,2013-10-06 13:49:00,
2013-10-06 09:51:00,69.9,67.2,29.79,SE,135,0.0,0.0,91,0.00,,,0.00,WUHU216HW,2013-10-06 13:51:00,
2013-10-06 09:52:00,65.8,62.8,29.61,SSW,203,0.0,0.0,90,0.00,,,0.00,WUHU216HW,2013-10-06 13:52:00,
2013-10-06 09:53:00,65.8,62.8,29.61,SSW,203,0.0,0.0,90,0.00,,,0.00,WUHU216HW,2013-10-06 13:53:00,
2013-10-06 09:54:00,65.8,62.8,29.61,SSW,203,0.0,0.0,90,0.00,,,0.00,WUHU216HW,2013-10-06 13:54:00,
2013-10-06 09:55:00,65.8,62.8,29.60,SSW,203,0.0,0.0,90,0.00,,,0.00,WUHU216HW,2013-10-06 13:55:00,
2013-10-06 09:56:00,70.3,67.5,29.79,SE,135,0.0,0.0,91,0.00,,,0.00,WUHU216HW,2013-10-06 13:56:00,
2013-10-06 09:57:00,65.8,62.8,29.60,SSW,203,0.0,0.0,90,0.00,,,0.00,WUHU216HW,2013-10-06 13:57:00,
2013-10-06 09:58:00,65.6,62.6,29.60,SSW,203,0.0,0.0,90,0.00,,,0.00,WUHU216HW,2013-10-06 13:58:00,
2013-10-06 10:00:00,65.6,62.6,29.61,SSW,203,0.0,0.0,90,0.00,,,0.00,WUHU216HW,2013-10-06 14:00:00,
2013-10-06 10:01:00,70.7,67.9,29.79,SE,135,0.0,0.0,91,0.00,,,0.00,WUHU216HW,2013-10-06 14:01:00,
2013-10-06 10:06:00,70.8,67.8,29.79,ENE,68,0.0,0.0,90,0.00,,,0.00,WUHU216HW,2013-10-06 14:06:00,
2013-10-06 10:11:00,71.2,68.1,29.78,ESE,113,0.0,0.0,90,0.00,,,0.00,WUHU216HW,2013-10-06 14:11:00,
2013-10-06 10:15:00,65.3,62.3,29.60,SSW,203,0.0,0.0,90,0.00,,,0.00,WUHU216HW,2013-10-06 14:15:00,
2013-10-06 10:16:00,71.7,68.3,29.78,ESE,113,0.0,0.0,89,0.00,,,0.00,WUHU216HW,2013-10-06 14:16:00,
2013-10-06 10:18:00,65.3,62.3,29.60,SSW,203,0.0,0.0,90,0.00,,,0.00,WUHU216HW,2013-10-06 14:18:00,
2013-10-06 10:20:00,65.3,62.3,29.60,SSW,203,0.0,0.0,90,0.00,,,0.00,WUHU216HW,2013-10-06 14:20:00,
2013-10-06 10:21:00,72.3,68.5,29.78,ESE,113,0.0,0.0,88,0.00,,,0.00,WUHU216HW,2013-10-06 14:21:00,
2013-10-06 10:22:00,65.1,62.1,29.60,SSW,203,0.0,0.0,90,0.00,,,0.00,WUHU216HW,2013-10-06 14:22:00,
2013-10-06 10:24:00,65.1,62.1,29.60,SSW,203,0.0,0.0,90,0.00,,,0.00,WUHU216HW,2013-10-06 14:24:00,
2013-10-06 10:25:00,65.1,62.1,29.60,SSW,203,0.0,0.0,90,0.00,,,0.00,WUHU216HW,2013-10-06 14:25:00,
2013-10-06 10:26:00,65.1,62.1,29.60,SSW,203,0.0,0.0,90,0.00,,,0.00,WUHU216HW,2013-10-06 14:26:00,
2013-10-06 10:27:00,72.5,69.1,29.78,ESE,113,0.0,0.0,89,0.00,,,0.00,WUHU216HW,2013-10-06 14:27:00,
2013-10-06 10:28:00,65.1,62.1,29.60,SSW,203,0.0,0.0,90,0.00,,,0.00,WUHU216HW,2013-10-06 14:28:00,
2013-10-06 10:29:00,65.1,62.1,29.60,SSW,203,0.0,0.0,90,0.00,,,0.00,WUHU216HW,2013-10-06 14:29:00,
2013-10-06 10:30:00,64.9,62.0,29.60,SSW,203,0.0,0.0,90,0.00,,,0.00,WUHU216HW,2013-10-06 14:30:00,
2013-10-06 10:32:00,72.6,68.9,29.78,ESE,113,0.0,0.0,88,0.00,,,0.00,WUHU216HW,2013-10-06 14:32:00,
2013-10-06 10:33:00,64.9,62.0,29.60,SSW,203,0.0,0.0,90,0.00,,,0.00,WUHU216HW,2013-10-06 14:33:00,
2013-10-06 10:36:00,64.9,62.0,29.60,SSW,203,0.0,0.0,90,0.00,,,0.00,WUHU216HW,2013-10-06 14:36:00,
2013-10-06 10:37:00,73.0,69.2,29.78,ESE,113,0.0,0.0,88,0.00,,,0.00,WUHU216HW,2013-10-06 14:37:00,
2013-10-06 10:40:00,64.9,62.0,29.60,SSW,203,0.0,0.0,90,0.00,,,0.00,WUHU216HW,2013-10-06 14:40:00,
2013-10-06 10:41:00,64.7,61.8,29.60,SSW,203,0.0,0.0,90,0.00,,,0.00,WUHU216HW,2013-10-06 14:41:00,
2013-10-06 10:42:00,73.2,69.4,29.78,ESE,113,0.0,0.0,88,0.00,,,0.00,WUHU216HW,2013-10-06 14:42:00,
2013-10-06 10:43:00,64.7,61.8,29.61,SSW,203,0.0,0.0,90,0.00,,,0.00,WUHU216HW,2013-10-06 14:43:00,
2013-10-06 10:47:00,73.2,69.4,29.78,ESE,113,0.0,0.0,87,0.00,,,0.00,WUHU216HW,2013-10-06 14:47:00,
2013-10-06 10:48:00,64.7,61.8,29.60,SSW,203,0.0,0.0,90,0.00,,,0.00,WUHU216HW,2013-10-06 14:48:00,
2013-10-06 10:50:00,64.5,61.6,29.60,SSW,203,0.0,0.0,90,0.00,,,0.00,WUHU216HW,2013-10-06 14:50:00,
2013-10-06 10:52:00,73.5,69.1,29.78,ESE,113,0.0,0.0,87,0.00,,,0.00,WUHU216HW,2013-10-06 14:52:00,
2013-10-06 10:55:00,64.5,61.6,29.60,SSW,203,0.0,0.0,90,0.00,,,0.00,WUHU216HW,2013-10-06 14:55:00,
2013-10-06 10:56:00,64.5,61.6,29.60,SSW,203,0.0,0.0,90,0.00,,,0.00,WUHU216HW,2013-10-06 14:56:00,
2013-10-06 10:57:00,73.7,69.3,29.78,SE,135,0.0,0.0,86,0.00,,,0.00,WUHU216HW,2013-10-06 14:57:00,
2013-10-06 10:58:00,64.5,61.6,29.60,SSW,203,0.0,0.0,90,0.00,,,0.00,WUHU216HW,2013-10-06 14:58:00,
2013-10-06 10:59:00,64.5,61.6,29.60,SSW,203,0.0,0.0,90,0.00,,,0.00,WUHU216HW,2013-10-06 14:59:00,
2013-10-06 11:00:00,64.5,61.6,29.60,SSW,203,0.0,0.0,90,0.00,,,0.00,WUHU216HW,2013-10-06 15:00:00,
2013-10-06 11:01:00,64.5,61.6,29.60,SSW,203,0.0,0.0,90,0.00,,,0.00,WUHU216HW,2013-10-06 15:01:00,
2013-10-06 11:02:00,73.7,69.3,29.78,ESE,113,0.0,0.0,86,0.00,,,0.00,WUHU216HW,2013-10-06 15:02:00,
2013-10-06 11:03:00,64.5,61.6,29.61,SSW,203,0.0,0.0,90,0.00,,,0.00,WUHU216HW,2013-10-06 15:03:00,
2013-10-06 11:04:00,64.5,61.6,29.60,SSW,203,0.0,0.0,90,0.00,,,0.00,WUHU216HW,2013-10-06 15:04:00,
2013-10-06 11:05:00,64.5,61.6,29.60,SSW,203,0.0,0.0,90,0.00,,,0.00,WUHU216HW,2013-10-06 15:05:00,
2013-10-06 11:06:00,64.5,61.6,29.60,SSW,203,0.0,0.0,90,0.00,,,0.00,WUHU216HW,2013-10-06 15:06:00,
2013-10-06 11:07:00,74.1,69.6,29.78,ESE,113,0.0,0.0,86,0.00,,,0.00,WUHU216HW,2013-10-06 15:07:00,
2013-10-06 11:08:00,64.5,61.6,29.61,SSW,203,0.0,0.0,90,0.00,,,0.00,WUHU216HW,2013-10-06 15:08:00,
2013-10-06 11:10:00,64.5,61.6,29.61,SSW,203,0.0,0.0,90,0.00,,,0.00,WUHU216HW,2013-10-06 15:10:00,
2013-10-06 11:11:00,64.4,61.5,29.61,SSW,203,0.0,0.0,90,0.00,,,0.00,WUHU216HW,2013-10-06 15:11:00,
2013-10-06 11:12:00,74.3,69.8,29.78,ESE,113,0.0,0.0,86,0.00,,,0.00,WUHU216HW,2013-10-06 15:12:00,
2013-10-06 11:13:00,64.4,61.5,29.61,SSW,203,0.0,0.0,90,0.00,,,0.00,WUHU216HW,2013-10-06 15:13:00,
2013-10-06 11:14:00,64.4,61.5,29.61,SSW,203,0.0,0.0,90,0.00,,,0.00,WUHU216HW,2013-10-06 15:14:00,
2013-10-06 11:15:00,64.4,61.5,29.61,SSW,203,0.0,0.0,90,0.00,,,0.00,WUHU216HW,2013-10-06 15:15:00,
2013-10-06 11:16:00,64.5,61.6,29.61,SSW,203,0.0,0.0,90,0.00,,,0.00,WUHU216HW,2013-10-06 15:16:00,
2013-10-06 11:17:00,74.6,69.8,29.78,ESE,113,0.0,0.0,85,0.00,,,0.00,WUHU216HW,2013-10-06 15:17:00,
2013-10-06 11:18:00,64.5,61.6,29.61,SSW,203,0.0,0.0,90,0.00,,,0.00,WUHU216HW,2013-10-06 15:18:00,
2013-10-06 11:22:00,75.0,70.2,29.78,ESE,113,0.0,0.0,85,0.00,,,0.00,WUHU216HW,2013-10-06 15:22:00,
2013-10-06 11:24:00,64.4,61.8,29.61,SSW,203,0.0,0.0,91,0.00,,,0.00,WUHU216HW,2013-10-06 15:24:00,
2013-10-06 11:25:00,64.4,61.8,29.61,SSW,203,0.0,0.0,91,0.00,,,0.00,WUHU216HW,2013-10-06 15:25:00,
2013-10-06 11:27:00,75.3,70.6,29.77,ESE,113,0.0,0.0,85,0.00,,,0.00,WUHU216HW,2013-10-06 15:27:00,
2013-10-06 11:28:00,64.4,61.8,29.61,SSW,203,0.0,0.0,91,0.00,,,0.00,WUHU216HW,2013-10-06 15:28:00,
2013-10-06 11:29:00,64.4,61.8,29.61,SSW,203,0.0,0.0,91,0.00,,,0.00,WUHU216HW,2013-10-06 15:29:00,
2013-10-06 11:31:00,64.4,61.8,29.61,SSW,203,0.0,0.0,91,0.00,,,0.00,WUHU216HW,2013-10-06 15:31:00,
2013-10-06 11:32:00,75.5,70.4,29.77,ESE,113,0.0,0.0,84,0.00,,,0.00,WUHU216HW,2013-10-06 15:32:00,
2013-10-06 11:33:00,64.2,61.6,29.61,SSW,203,0.0,0.0,91,0.00,,,0.00,WUHU216HW,2013-10-06 15:33:00,
2013-10-06 11:34:00,64.2,61.6,29.61,SSW,203,0.0,0.0,91,0.00,,,0.00,WUHU216HW,2013-10-06 15:34:00,
2013-10-06 11:36:00,64.4,61.8,29.61,SSW,203,0.0,0.0,91,0.00,,,0.00,WUHU216HW,2013-10-06 15:36:00,
2013-10-06 11:37:00,75.5,70.4,29.77,ESE,113,0.0,0.0,83,0.00,,,0.00,WUHU216HW,2013-10-06 15:37:00,
2013-10-06 11:42:00,75.3,69.9,29.77,ESE,113,0.0,0.0,83,0.00,,,0.00,WUHU216HW,2013-10-06 15:42:00,
2013-10-06 11:47:00,75.3,69.9,29.77,ESE,113,0.0,0.0,83,0.00,,,0.00,WUHU216HW,2013-10-06 15:47:00,
2013-10-06 11:52:00,75.7,69.9,29.77,ESE,113,0.0,0.0,83,0.00,,,0.00,WUHU216HW,2013-10-06 15:52:00,
2013-10-06 11:57:00,75.7,69.9,29.77,ESE,113,0.0,0.0,83,0.00,,,0.00,WUHU216HW,2013-10-06 15:57:00,
2013-10-06 12:03:00,75.9,70.0,29.76,ESE,113,0.0,0.0,82,0.00,,,0.00,WUHU216HW,2013-10-06 16:03:00,
2013-10-06 12:05:00,64.2,61.6,29.61,WSW,248,0.0,0.0,91,0.00,,,0.00,WUHU216HW,2013-10-06 16:05:00,
2013-10-06 12:07:00,64.2,61.6,29.61,WSW,248,0.0,0.0,91,0.00,,,0.00,WUHU216HW,2013-10-06 16:07:00,
2013-10-06 12:08:00,76.6,70.7,29.76,ESE,113,0.0,0.0,82,0.00,,,0.00,WUHU216HW,2013-10-06 16:08:00,
2013-10-06 12:09:00,64.2,61.6,29.61,WSW,248,0.0,0.0,91,0.00,,,0.00,WUHU216HW,2013-10-06 16:09:00,
2013-10-06 12:10:00,64.2,61.6,29.62,WSW,248,0.0,0.0,91,0.00,,,0.00,WUHU216HW,2013-10-06 16:10:00,
2013-10-06 12:11:00,64.4,61.8,29.62,WSW,248,0.0,0.0,91,0.00,,,0.00,WUHU216HW,2013-10-06 16:11:00,
2013-10-06 12:12:00,64.4,61.8,29.62,WSW,248,0.0,0.0,91,0.00,,,0.00,WUHU216HW,2013-10-06 16:12:00,
2013-10-06 12:13:00,76.6,70.7,29.76,ESE,113,0.0,0.0,82,0.00,,,0.00,WUHU216HW,2013-10-06 16:13:00,
2013-10-06 12:14:00,64.4,61.8,29.61,NW,315,0.0,0.0,91,0.00,,,0.00,WUHU216HW,2013-10-06 16:14:00,
2013-10-06 12:15:00,64.4,61.8,29.62,NW,315,0.0,0.0,92,0.00,,,0.00,WUHU216HW,2013-10-06 16:15:00,
2013-10-06 12:16:00,64.4,61.8,29.62,NW,315,0.0,0.0,92,0.00,,,0.00,WUHU216HW,2013-10-06 16:16:00,
2013-10-06 12:17:00,64.4,61.8,29.62,NW,315,0.0,0.0,92,0.00,,,0.00,WUHU216HW,2013-10-06 16:17:00,
2013-10-06 12:18:00,76.8,70.5,29.76,ESE,113,0.0,0.0,81,0.00,,,0.00,WUHU216HW,2013-10-06 16:18:00,
2013-10-06 12:19:00,64.4,61.8,29.62,NW,315,0.0,0.0,91,0.00,,,0.00,WUHU216HW,2013-10-06 16:19:00,
2013-10-06 12:20:00,64.4,61.8,29.62,North,0,0.0,0.0,91,0.00,,,0.00,WUHU216HW,2013-10-06 16:20:00,
2013-10-06 12:21:00,64.4,61.8,29.62,North,0,0.0,0.0,91,0.00,,,0.00,WUHU216HW,2013-10-06 16:21:00,
2013-10-06 12:22:00,64.4,61.8,29.62,North,0,0.0,0.0,91,0.00,,,0.00,WUHU216HW,2013-10-06 16:22:00,
2013-10-06 12:23:00,77.0,70.7,29.76,ESE,113,0.0,0.0,81,0.00,,,0.00,WUHU216HW,2013-10-06 16:23:00,
2013-10-06 12:24:00,64.4,61.8,29.61,NE,45,0.0,0.0,91,0.00,,,0.00,WUHU216HW,2013-10-06 16:24:00,
2013-10-06 12:26:00,64.4,61.8,29.62,NE,45,0.0,0.0,91,0.00,,,0.00,WUHU216HW,2013-10-06 16:26:00,
2013-10-06 12:28:00,77.1,70.5,29.76,ESE,113,0.0,0.0,80,0.00,,,0.00,WUHU216HW,2013-10-06 16:28:00,
2013-10-06 12:30:00,64.2,61.6,29.62,NE,45,0.0,0.0,91,0.00,,,0.00,WUHU216HW,2013-10-06 16:30:00,
2013-10-06 12:32:00,64.2,61.6,29.62,NNE,23,0.0,0.0,91,0.00,,,0.00,WUHU216HW,2013-10-06 16:32:00,
2013-10-06 12:33:00,77.1,70.1,29.75,ESE,113,0.0,0.0,79,0.00,,,0.00,WUHU216HW,2013-10-06 16:33:00,
2013-10-06 12:34:00,64.0,61.4,29.63,NNE,23,0.0,0.0,91,0.00,,,0.00,WUHU216HW,2013-10-06 16:34:00,
2013-10-06 12:35:00,64.0,61.4,29.63,NNE,23,0.0,0.0,91,0.00,,,0.00,WUHU216HW,2013-10-06 16:35:00,
2013-10-06 12:36:00,64.0,61.4,29.63,NW,315,0.0,0.0,90,0.00,,,0.00,WUHU216HW,2013-10-06 16:36:00,
2013-10-06 12:37:00,64.0,61.4,29.63,NW,315,0.0,0.0,90,0.00,,,0.00,WUHU216HW,2013-10-06 16:37:00,
2013-10-06 12:38:00,77.1,70.1,29.75,ESE,113,0.0,0.0,79,0.00,,,0.00,WUHU216HW,2013-10-06 16:38:00,
2013-10-06 12:39:00,64.0,61.4,29.63,NW,315,0.0,0.0,89,0.00,,,0.00,WUHU216HW,2013-10-06 16:39:00,
2013-10-06 12:40:00,63.8,59.9,29.63,WNW,293,0.0,0.0,87,0.00,,,0.00,WUHU216HW,2013-10-06 16:40:00,
2013-10-06 12:41:00,63.8,59.9,29.63,WNW,293,0.0,0.0,87,0.00,,,0.00,WUHU216HW,2013-10-06 16:41:00,
2013-10-06 12:42:00,63.6,59.4,29.63,ENE,68,0.0,0.0,86,0.00,,,0.00,WUHU216HW,2013-10-06 16:42:00,
2013-10-06 12:43:00,76.8,70.1,29.75,ESE,113,0.0,0.0,80,0.00,,,0.00,WUHU216HW,2013-10-06 16:43:00,
2013-10-06 12:44:00,63.5,58.2,29.63,WNW,293,0.0,0.0,83,0.00,,,0.00,WUHU216HW,2013-10-06 16:44:00,
2013-10-06 12:45:00,63.5,58.2,29.63,WNW,293,0.0,0.0,83,0.00,,,0.00,WUHU216HW,2013-10-06 16:45:00,
2013-10-06 12:46:00,63.5,58.2,29.63,North,0,0.0,0.0,83,0.00,,,0.00,WUHU216HW,2013-10-06 16:46:00,
2013-10-06 12:47:00,63.5,58.2,29.64,North,0,0.0,0.0,83,0.00,,,0.00,WUHU216HW,2013-10-06 16:47:00,
2013-10-06 12:48:00,76.8,70.1,29.74,ESE,113,0.0,0.0,80,0.00,,,0.00,WUHU216HW,2013-10-06 16:48:00,
2013-10-06 12:49:00,63.3,58.0,29.64,East,90,0.0,0.0,83,0.00,,,0.00,WUHU216HW,2013-10-06 16:49:00,
2013-10-06 12:50:00,63.3,58.0,29.64,East,90,0.0,0.0,83,0.00,,,0.00,WUHU216HW,2013-10-06 16:50:00,
2013-10-06 12:51:00,63.3,58.0,29.64,NW,315,0.0,0.0,82,0.00,,,0.00,WUHU216HW,2013-10-06 16:51:00,
2013-10-06 12:52:00,63.3,58.0,29.64,ENE,68,0.0,0.0,79,0.00,,,0.00,WUHU216HW,2013-10-06 16:52:00,
2013-10-06 12:53:00,77.5,70.8,29.74,NE,45,0.0,0.0,80,0.00,,,0.00,WUHU216HW,2013-10-06 16:53:00,
2013-10-06 12:54:00,63.3,58.0,29.64,ENE,68,0.0,0.0,79,0.00,,,0.00,WUHU216HW,2013-10-06 16:54:00,
2013-10-06 12:55:00,63.1,56.4,29.64,NNE,23,0.0,0.0,79,0.00,,,0.00,WUHU216HW,2013-10-06 16:55:00,
2013-10-06 12:56:00,63.1,56.4,29.64,NNE,23,0.0,0.0,79,0.00,,,0.00,WUHU216HW,2013-10-06 16:56:00,
2013-10-06 12:57:00,63.1,56.4,29.64,NNE,23,0.0,0.0,79,0.00,,,0.00,WUHU216HW,2013-10-06 16:57:00,
2013-10-06 12:58:00,78.0,70.6,29.74,SSE,158,0.0,0.0,78,0.00,,,0.00,WUHU216HW,2013-10-06 16:58:00,
2013-10-06 13:03:00,77.9,70.4,29.74,SSE,158,0.0,0.0,78,0.00,,,0.00,WUHU216HW,2013-10-06 17:03:00,
2013-10-06 13:06:00,62.7,56.1,29.64,NNW,338,0.0,0.0,79,0.00,,,0.00,WUHU216HW,2013-10-06 17:06:00,
2013-10-06 13:07:00,62.7,56.1,29.63,NNW,338,0.0,0.0,79,0.00,,,0.00,WUHU216HW,2013-10-06 17:07:00,
2013-10-06 13:08:00,77.9,70.4,29.74,SSE,158,0.0,0.0,78,0.00,,,0.00,WUHU216HW,2013-10-06 17:08:00,
2013-10-06 13:10:00,62.7,56.1,29.64,NNE,23,0.0,0.0,80,0.00,,,0.00,WUHU216HW,2013-10-06 17:10:00,
2013-10-06 13:11:00,62.7,56.1,29.64,NNE,23,0.0,0.0,80,0.00,,,0.00,WUHU216HW,2013-10-06 17:11:00,
2013-10-06 13:12:00,62.7,56.1,29.64,NNE,23,0.0,0.0,80,0.00,,,0.00,WUHU216HW,2013-10-06 17:12:00,
2013-10-06 13:13:00,78.4,70.9,29.73,SSW,203,0.0,0.0,78,0.00,,,0.00,WUHU216HW,2013-10-06 17:13:00,
2013-10-06 13:14:00,62.6,56.3,29.64,NNE,23,0.0,0.0,80,0.00,,,0.00,WUHU216HW,2013-10-06 17:14:00,
2013-10-06 13:18:00,78.6,70.7,29.73,SSE,158,0.0,0.0,77,0.00,,,0.00,WUHU216HW,2013-10-06 17:18:00,
2013-10-06 13:19:00,62.6,56.3,29.65,North,0,0.0,0.0,80,0.00,,,0.00,WUHU216HW,2013-10-06 17:19:00,
2013-10-06 13:22:00,62.4,56.1,29.65,North,0,0.0,0.0,80,0.00,,,0.00,WUHU216HW,2013-10-06 17:22:00,
2013-10-06 13:23:00,78.6,70.7,29.73,South,180,0.0,0.0,77,0.00,,,0.00,WUHU216HW,2013-10-06 17:23:00,
2013-10-06 13:24:00,62.4,56.1,29.65,North,0,0.0,0.0,80,0.00,,,0.00,WUHU216HW,2013-10-06 17:24:00,
2013-10-06 13:25:00,62.4,56.1,29.66,North,0,0.0,0.0,81,0.00,,,0.00,WUHU216HW,2013-10-06 17:25:00,
2013-10-06 13:27:00,62.4,56.1,29.65,North,0,0.0,0.0,81,0.00,,,0.00,WUHU216HW,2013-10-06 17:27:00,
2013-10-06 13:28:00,78.9,71.1,29.72,South,180,0.0,0.0,77,0.00,,,0.00,WUHU216HW,2013-10-06 17:28:00,
2013-10-06 13:29:00,62.4,56.1,29.65,North,0,0.0,0.0,81,0.00,,,0.00,WUHU216HW,2013-10-06 17:29:00,
2013-10-06 13:30:00,62.4,56.1,29.65,North,0,0.0,0.0,81,0.00,,,0.00,WUHU216HW,2013-10-06 17:30:00,
2013-10-06 13:31:00,62.2,56.3,29.65,North,0,0.0,0.0,81,0.00,,,0.00,WUHU216HW,2013-10-06 17:31:00,
2013-10-06 13:33:00,79.5,71.6,29.72,ESE,113,0.0,0.0,76,0.00,,,0.00,WUHU216HW,2013-10-06 17:33:00,
2013-10-06 13:35:00,62.2,56.3,29.65,North,0,0.0,0.0,81,0.00,,,0.00,WUHU216HW,2013-10-06 17:35:00,
2013-10-06 13:37:00,62.2,56.3,29.65,North,0,0.0,0.0,81,0.00,,,0.00,WUHU216HW,2013-10-06 17:37:00,
2013-10-06 13:38:00,79.5,71.6,29.72,SE,135,0.0,0.0,76,0.00,,,0.00,WUHU216HW,2013-10-06 17:38:00,
2013-10-06 13:39:00,62.2,56.3,29.66,North,0,0.0,0.0,81,0.00,,,0.00,WUHU216HW,2013-10-06 17:39:00,
2013-10-06 13:41:00,62.2,56.3,29.66,North,0,0.0,0.0,81,0.00,,,0.00,WUHU216HW,2013-10-06 17:41:00,
2013-10-06 13:43:00,79.5,71.6,29.72,SSE,158,0.0,0.0,76,0.00,,,0.00,WUHU216HW,2013-10-06 17:43:00,
2013-10-06 13:45:00,62.0,56.1,29.66,North,0,0.0,0.0,81,0.00,,,0.00,WUHU216HW,2013-10-06 17:45:00,
2013-10-06 13:48:00,79.8,70.8,29.72,WSW,248,0.0,0.0,74,0.00,,,0.00,WUHU216HW,2013-10-06 17:48:00,
2013-10-06 13:52:00,61.8,55.9,29.66,North,0,0.0,0.0,81,0.00,,,0.00,WUHU216HW,2013-10-06 17:52:00,
2013-10-06 13:53:00,80.0,70.2,29.71,South,180,0.0,0.0,72,0.00,,,0.00,WUHU216HW,2013-10-06 17:53:00,
2013-10-06 13:54:00,61.8,55.9,29.66,North,0,0.0,0.0,81,0.00,,,0.00,WUHU216HW,2013-10-06 17:54:00,
2013-10-06 13:55:00,61.8,55.9,29.66,North,0,0.0,0.0,81,0.00,,,0.00,WUHU216HW,2013-10-06 17:55:00,
2013-10-06 13:56:00,61.8,55.9,29.66,North,0,0.0,0.0,81,0.00,,,0.00,WUHU216HW,2013-10-06 17:56:00,
2013-10-06 13:57:00,61.8,55.9,29.66,North,0,0.0,0.0,82,0.00,,,0.00,WUHU216HW,2013-10-06 17:57:00,
2013-10-06 13:58:00,80.2,70.8,29.71,South,180,0.0,0.0,73,0.00,,,0.00,WUHU216HW,2013-10-06 17:58:00,
2013-10-06 14:02:00,61.7,56.1,29.66,North,0,0.0,0.0,82,0.00,,,0.00,WUHU216HW,2013-10-06 18:02:00,
2013-10-06 14:03:00,81.1,70.8,29.71,SE,135,0.0,0.0,71,0.00,,,0.00,WUHU216HW,2013-10-06 18:03:00,
2013-10-06 14:06:00,61.5,55.9,29.66,North,0,0.0,0.0,82,0.00,,,0.00,WUHU216HW,2013-10-06 18:06:00,
2013-10-06 14:08:00,81.1,70.4,29.71,NE,45,0.0,0.0,70,0.00,,,0.00,WUHU216HW,2013-10-06 18:08:00,
2013-10-06 14:09:00,61.5,55.9,29.67,North,0,0.0,0.0,82,0.00,,,0.00,WUHU216HW,2013-10-06 18:09:00,
2013-10-06 14:10:00,61.3,56.1,29.66,North,0,0.0,0.0,83,0.00,,,0.00,WUHU216HW,2013-10-06 18:10:00,
2013-10-06 14:13:00,81.5,70.7,29.71,SE,135,0.0,0.0,70,0.00,,,0.00,WUHU216HW,2013-10-06 18:13:00,
2013-10-06 14:14:00,61.1,55.9,29.66,North,0,0.0,0.0,83,0.00,,,0.00,WUHU216HW,2013-10-06 18:14:00,
2013-10-06 14:18:00,81.1,70.0,29.71,SSE,158,0.0,0.0,69,0.00,,,0.00,WUHU216HW,2013-10-06 18:18:00,
2013-10-06 14:19:00,61.1,55.9,29.66,North,0,0.0,0.0,83,0.00,,,0.00,WUHU216HW,2013-10-06 18:19:00,
2013-10-06 14:21:00,60.9,55.8,29.66,North,0,0.0,0.0,83,0.00,,,0.00,WUHU216HW,2013-10-06 18:21:00,
2013-10-06 14:22:00,60.9,55.8,29.66,North,0,0.0,0.0,83,0.00,,,0.00,WUHU216HW,2013-10-06 18:22:00,
2013-10-06 14:23:00,60.9,55.8,29.67,North,0,0.0,0.0,83,0.00,,,0.00,WUHU216HW,2013-10-06 18:23:00,
2013-10-06 14:24:00,80.7,70.1,29.71,WSW,248,0.0,0.0,70,0.00,,,0.00,WUHU216HW,2013-10-06 18:24:00,
2013-10-06 14:29:00,80.9,70.3,29.70,SW,225,0.0,0.0,70,0.00,,,0.00,WUHU216HW,2013-10-06 18:29:00,
2013-10-06 14:34:00,80.9,70.3,29.70,SSW,203,0.0,0.0,70,0.00,,,0.00,WUHU216HW,2013-10-06 18:34:00,
2013-10-06 14:39:00,80.9,70.3,29.69,SSE,158,0.0,0.0,69,0.00,,,0.00,WUHU216HW,2013-10-06 18:39:00,
2013-10-06 14:44:00,81.1,70.0,29.69,SW,225,0.0,0.0,69,0.00,,,0.00,WUHU216HW,2013-10-06 18:44:00,
2013-10-06 14:49:00,80.7,69.6,29.69,SE,135,0.0,0.0,68,0.00,,,0.00,WUHU216HW,2013-10-06 18:49:00,
2013-10-06 14:53:00,60.4,54.6,29.68,NW,315,0.0,0.0,81,0.00,,,0.00,WUHU216HW,2013-10-06 18:53:00,
2013-10-06 14:54:00,81.1,69.5,29.69,SSE,158,0.0,0.0,68,0.00,,,0.00,WUHU216HW,2013-10-06 18:54:00,
2013-10-06 14:57:00,60.0,54.2,29.68,East,90,0.0,0.0,81,0.00,,,0.00,WUHU216HW,2013-10-06 18:57:00,
2013-10-06 14:58:00,60.0,54.2,29.68,East,90,0.0,0.0,81,0.00,,,0.00,WUHU216HW,2013-10-06 18:58:00,
2013-10-06 14:59:00,81.3,70.1,29.69,NNE,23,0.0,0.0,69,0.00,,,0.00,WUHU216HW,2013-10-06 18:59:00,
2013-10-06 15:01:00,60.0,54.2,29.69,East,90,0.0,0.0,81,0.00,,,0.00,WUHU216HW,2013-10-06 19:01:00,
2013-10-06 15:02:00,59.9,54.1,29.69,West,270,0.0,0.0,81,0.00,,,0.00,WUHU216HW,2013-10-06 19:02:00,
2013-10-06 15:03:00,59.9,54.1,29.69,West,270,0.0,0.0,81,0.00,,,0.00,WUHU216HW,2013-10-06 19:03:00,
2013-10-06 15:04:00,81.8,70.2,29.68,SE,135,0.0,0.0,68,0.00,,,0.00,WUHU216HW,2013-10-06 19:04:00,
2013-10-06 15:06:00,59.5,53.4,29.69,NW,315,0.0,0.0,80,0.00,,,0.00,WUHU216HW,2013-10-06 19:06:00,
2013-10-06 15:07:00,59.5,53.4,29.69,NW,315,0.0,0.0,80,0.00,,,0.00,WUHU216HW,2013-10-06 19:07:00,
2013-10-06 15:08:00,59.5,53.4,29.69,NW,315,0.0,0.0,80,0.00,,,0.00,WUHU216HW,2013-10-06 19:08:00,
2013-10-06 15:09:00,82.2,69.6,29.68,SE,135,0.0,0.0,66,0.00,,,0.00,WUHU216HW,2013-10-06 19:09:00,
2013-10-06 15:10:00,59.5,53.4,29.69,ESE,113,0.0,0.0,79,0.00,,,0.00,WUHU216HW,2013-10-06 19:10:00,
2013-10-06 15:11:00,59.5,53.4,29.69,ESE,113,0.0,0.0,79,0.00,,,0.00,WUHU216HW,2013-10-06 19:11:00,
2013-10-06 15:12:00,59.5,53.4,29.69,ESE,113,0.0,0.0,79,0.00,,,0.00,WUHU216HW,2013-10-06 19:12:00,
2013-10-06 15:13:00,59.3,52.8,29.69,WNW,293,0.0,0.0,79,0.00,,,0.00,WUHU216HW,2013-10-06 19:13:00,
2013-10-06 15:14:00,82.4,69.8,29.68,SE,135,0.0,0.0,65,0.00,,,0.00,WUHU216HW,2013-10-06 19:14:00,
2013-10-06 15:16:00,59.3,52.8,29.69,North,0,0.0,0.0,80,0.00,,,0.00,WUHU216HW,2013-10-06 19:16:00,
2013-10-06 15:17:00,59.3,52.8,29.69,North,0,0.0,0.0,80,0.00,,,0.00,WUHU216HW,2013-10-06 19:17:00,
2013-10-06 15:18:00,59.3,52.8,29.69,North,0,0.0,0.0,80,0.00,,,0.00,WUHU216HW,2013-10-06 19:18:00,
2013-10-06 15:20:00,82.2,69.1,29.68,SE,135,0.0,0.0,65,0.00,,,0.00,WUHU216HW,2013-10-06 19:20:00,
2013-10-06 15:21:00,59.0,52.8,29.69,NW,315,0.0,0.0,80,0.00,,,0.00,WUHU216HW,2013-10-06 19:21:00,
2013-10-06 15:22:00,59.0,52.8,29.69,NW,315,0.0,0.0,80,0.00,,,0.00,WUHU216HW,2013-10-06 19:22:00,
2013-10-06 15:23:00,59.0,52.8,29.69,NW,315,0.0,0.0,80,0.00,,,0.00,WUHU216HW,2013-10-06 19:23:00,
2013-10-06 15:24:00,59.0,52.8,29.69,NW,315,0.0,0.0,80,0.00,,,0.00,WUHU216HW,2013-10-06 19:24:00,
2013-10-06 15:25:00,82.2,69.1,29.67,SE,135,0.0,0.0,66,0.00,,,0.00,WUHU216HW,2013-10-06 19:25:00,
2013-10-06 15:26:00,59.0,52.8,29.69,NNW,338,0.0,0.0,80,0.00,,,0.00,WUHU216HW,2013-10-06 19:26:00,
2013-10-06 15:28:00,59.0,52.8,29.69,NNW,338,0.0,0.0,80,0.00,,,0.00,WUHU216HW,2013-10-06 19:28:00,
2013-10-06 15:29:00,59.0,52.8,29.69,NNW,338,0.0,0.0,80,0.00,,,0.00,WUHU216HW,2013-10-06 19:29:00,
2013-10-06 15:30:00,82.4,69.3,29.67,SSW,203,0.2,6.0,65,0.00,,,0.00,WUHU216HW,2013-10-06 19:30:00,
2013-10-06 15:31:00,59.0,52.8,29.69,NNW,338,0.0,0.0,80,0.00,,,0.00,WUHU216HW,2013-10-06 19:31:00,
2013-10-06 15:35:00,82.9,69.4,29.67,ESE,113,0.0,6.0,64,0.00,,,0.00,WUHU216HW,2013-10-06 19:35:00,
2013-10-06 15:40:00,82.9,69.4,29.67,SSE,158,1.3,1.3,63,0.00,,,0.00,WUHU216HW,2013-10-06 19:40:00,
2013-10-06 15:45:00,83.1,69.1,29.67,SSE,158,0.0,1.3,63,0.00,,,0.00,WUHU216HW,2013-10-06 19:45:00,
2013-10-06 15:50:00,83.4,69.0,29.67,South,180,0.0,5.3,62,0.00,,,0.00,WUHU216HW,2013-10-06 19:50:00,
2013-10-06 15:55:00,82.9,68.9,29.67,SE,135,0.0,5.3,63,0.00,,,0.00,WUHU216HW,2013-10-06 19:55:00,
2013-10-06 16:00:00,82.4,68.9,29.66,SE,135,0.0,0.0,64,0.00,,,0.00,WUHU216HW,2013-10-06 20:00:00,
2013-10-06 16:12:00,82.0,68.5,29.66,SSE,158,0.0,3.3,64,0.00,,,0.00,WUHU216HW,2013-10-06 20:12:00,
2013-10-06 16:14:00,58.1,51.2,29.71,NW,315,0.0,0.0,78,0.00,,,0.00,WUHU216HW,2013-10-06 20:14:00,
2013-10-06 16:16:00,58.1,51.2,29.72,NW,315,0.0,0.0,78,0.00,,,0.00,WUHU216HW,2013-10-06 20:16:00,
2013-10-06 16:18:00,81.6,68.7,29.66,SE,135,0.0,3.3,64,0.00,,,0.00,WUHU216HW,2013-10-06 20:18:00,
2013-10-06 16:22:00,58.1,51.2,29.72,NW,315,0.0,0.0,79,0.00,,,0.00,WUHU216HW,2013-10-06 20:22:00,
2013-10-06 16:23:00,58.1,51.2,29.71,NW,315,0.0,0.0,79,0.00,,,0.00,WUHU216HW,2013-10-06 20:23:00,
2013-10-06 16:24:00,81.5,68.5,29.66,SE,135,0.0,0.0,65,0.00,,,0.00,WUHU216HW,2013-10-06 20:24:00,
2013-10-06 16:26:00,58.1,51.2,29.72,NE,45,1.5,1.5,79,0.00,,,0.00,WUHU216HW,2013-10-06 20:26:00,
2013-10-06 16:27:00,58.1,51.2,29.72,NE,45,1.5,1.5,79,0.00,,,0.00,WUHU216HW,2013-10-06 20:27:00,
2013-10-06 16:28:00,58.1,51.2,29.72,North,0,2.0,2.0,79,0.00,,,0.00,WUHU216HW,2013-10-06 20:28:00,
2013-10-06 16:29:00,81.5,68.5,29.66,ESE,113,0.0,0.0,65,0.00,,,0.00,WUHU216HW,2013-10-06 20:29:00,
2013-10-06 16:30:00,58.1,51.2,29.72,NE,45,0.0,2.0,78,0.00,,,0.00,WUHU216HW,2013-10-06 20:30:00,
2013-10-06 16:32:00,57.9,50.7,29.72,NNW,338,0.0,2.0,77,0.00,,,0.00,WUHU216HW,2013-10-06 20:32:00,
2013-10-06 16:33:00,57.9,50.7,29.72,NNW,338,0.0,2.0,77,0.00,,,0.00,WUHU216HW,2013-10-06 20:33:00,
2013-10-06 16:34:00,81.5,68.5,29.66,SSE,158,0.0,0.0,65,0.00,,,0.00,WUHU216HW,2013-10-06 20:34:00,
2013-10-06 16:39:00,81.3,68.8,29.66,SE,135,0.0,0.0,66,0.00,,,0.00,WUHU216HW,2013-10-06 20:39:00,
2013-10-06 16:44:00,81.3,68.8,29.66,SSE,158,1.5,1.5,67,0.00,,,0.00,WUHU216HW,2013-10-06 20:44:00,
2013-10-06 16:49:00,81.6,70.5,29.66,SSE,158,0.0,1.5,69,0.00,,,0.00,WUHU216HW,2013-10-06 20:49:00,
2013-10-06 16:54:00,81.3,70.6,29.66,SSW,203,0.0,3.3,70,0.00,,,0.00,WUHU216HW,2013-10-06 20:54:00,
2013-10-06 16:59:00,81.1,70.8,29.66,SSW,203,3.3,3.3,71,0.00,,,0.00,WUHU216HW,2013-10-06 20:59:00,
2013-10-06 17:04:00,80.9,70.7,29.66,SSW,203,0.0,3.3,72,0.00,,,0.00,WUHU216HW,2013-10-06 21:04:00,
2013-10-06 17:10:00,80.7,70.9,29.66,WSW,248,0.0,3.3,71,0.00,,,0.00,WUHU216HW,2013-10-06 21:10:00,
2013-10-06 17:15:00,80.7,70.9,29.65,WSW,248,0.0,0.0,72,0.00,,,0.00,WUHU216HW,2013-10-06 21:15:00,
2013-10-06 17:20:00,80.7,70.9,29.66,West,270,0.0,0.0,72,0.00,,,0.00,WUHU216HW,2013-10-06 21:20:00,
2013-10-06 17:22:00,58.6,49.2,29.74,East,90,0.0,0.0,71,0.00,,,0.00,WUHU216HW,2013-10-06 21:22:00,
2013-10-06 17:23:00,58.6,49.2,29.74,East,90,0.0,0.0,71,0.00,,,0.00,WUHU216HW,2013-10-06 21:23:00,
2013-10-06 17:24:00,58.6,49.2,29.74,North,0,0.0,0.0,71,0.00,,,0.00,WUHU216HW,2013-10-06 21:24:00,
2013-10-06 17:25:00,80.7,70.9,29.65,SE,135,0.0,0.0,73,0.00,,,0.00,WUHU216HW,2013-10-06 21:25:00,
2013-10-06 17:30:00,80.6,71.1,29.66,North,0,0.0,0.0,73,0.00,,,0.00,WUHU216HW,2013-10-06 21:30:00,
2013-10-06 17:31:00,58.6,49.2,29.74,ENE,68,0.0,0.0,70,0.00,,,0.00,WUHU216HW,2013-10-06 21:31:00,
2013-10-06 17:32:00,58.8,48.6,29.74,WSW,248,0.0,0.0,69,0.00,,,0.00,WUHU216HW,2013-10-06 21:32:00,
2013-10-06 17:34:00,58.8,48.6,29.74,WSW,248,0.0,0.0,69,0.00,,,0.00,WUHU216HW,2013-10-06 21:34:00,
2013-10-06 17:35:00,80.4,70.9,29.66,SSE,158,0.0,0.0,73,0.00,,,0.00,WUHU216HW,2013-10-06 21:35:00,
2013-10-06 17:36:00,59.0,48.8,29.74,WSW,248,0.0,0.0,69,0.00,,,0.00,WUHU216HW,2013-10-06 21:36:00,
2013-10-06 17:38:00,59.0,48.8,29.74,NW,315,0.0,0.0,69,0.00,,,0.00,WUHU216HW,2013-10-06 21:38:00,
2013-10-06 17:39:00,59.0,48.8,29.74,NE,45,0.0,0.0,68,0.00,,,0.00,WUHU216HW,2013-10-06 21:39:00,
2013-10-06 17:40:00,80.4,70.9,29.66,SSE,158,0.0,0.0,74,0.00,,,0.00,WUHU216HW,2013-10-06 21:40:00,
2013-10-06 17:45:00,80.2,71.2,29.66,SSE,158,0.0,0.0,74,0.00,,,0.00,WUHU216HW,2013-10-06 21:45:00,
2013-10-06 17:48:00,59.1,48.2,29.74,NE,45,0.0,3.8,67,0.00,,,0.00,WUHU216HW,2013-10-06 21:48:00,
2013-10-06 17:49:00,59.1,48.2,29.74,NE,45,0.0,3.8,67,0.00,,,0.00,WUHU216HW,2013-10-06 21:49:00,
2013-10-06 17:50:00,80.2,71.2,29.65,SE,135,0.0,0.0,74,0.00,,,0.00,WUHU216HW,2013-10-06 21:50:00,
2013-10-06 17:53:00,59.3,47.9,29.74,North,0,0.0,3.8,66,0.00,,,0.00,WUHU216HW,2013-10-06 21:53:00,
2013-10-06 17:54:00,59.3,47.9,29.74,SSE,158,0.0,3.8,66,0.00,,,0.00,WUHU216HW,2013-10-06 21:54:00,
2013-10-06 17:55:00,80.0,71.0,29.66,SE,135,0.0,0.0,75,0.00,,,0.00,WUHU216HW,2013-10-06 21:55:00,
2013-10-06 17:57:00,59.5,48.1,29.74,WNW,293,0.0,3.5,66,0.00,,,0.00,WUHU216HW,2013-10-06 21:57:00,
2013-10-06 18:00:00,79.8,71.2,29.66,South,180,0.0,0.8,75,0.00,,,0.00,WUHU216HW,2013-10-06 22:00:00,
2013-10-06 18:02:00,59.7,48.3,29.74,NW,315,0.0,1.5,66,0.00,,,0.00,WUHU216HW,2013-10-06 22:02:00,
2013-10-06 18:04:00,59.7,48.3,29.74,NW,315,0.0,1.5,66,0.00,,,0.00,WUHU216HW,2013-10-06 22:04:00,
2013-10-06 18:05:00,79.7,71.4,29.66,SE,135,0.0,2.0,76,0.00,,,0.00,WUHU216HW,2013-10-06 22:05:00,
2013-10-06 18:06:00,59.7,48.3,29.75,NW,315,0.0,1.5,66,0.00,,,0.00,WUHU216HW,2013-10-06 22:06:00,
2013-10-06 18:08:00,59.9,48.1,29.75,East,90,0.0,3.3,65,0.00,,,0.00,WUHU216HW,2013-10-06 22:08:00,
2013-10-06 18:09:00,59.9,48.1,29.75,East,90,0.0,3.3,65,0.00,,,0.00,WUHU216HW,2013-10-06 22:09:00,
2013-10-06 18:10:00,79.3,71.0,29.66,SSE,158,0.0,2.0,76,0.00,,,0.00,WUHU216HW,2013-10-06 22:10:00,
2013-10-06 18:11:00,59.9,48.1,29.74,East,90,0.0,3.3,65,0.00,,,0.00,WUHU216HW,2013-10-06 22:11:00,
2013-10-06 18:12:00,60.0,48.7,29.74,NW,315,0.0,3.3,66,0.00,,,0.00,WUHU216HW,2013-10-06 22:12:00,
2013-10-06 18:14:00,60.0,48.7,29.75,NE,45,0.0,3.3,65,0.00,,,0.00,WUHU216HW,2013-10-06 22:14:00,
2013-10-06 18:15:00,79.3,71.0,29.66,SSE,158,0.0,0.0,76,0.00,,,0.00,WUHU216HW,2013-10-06 22:15:00,
2013-10-06 18:17:00,60.0,48.7,29.75,North,0,0.0,3.3,65,0.00,,,0.00,WUHU216HW,2013-10-06 22:17:00,
2013-10-06 18:18:00,60.0,48.7,29.75,WSW,248,0.0,3.3,65,0.00,,,0.00,WUHU216HW,2013-10-06 22:18:00,
2013-10-06 18:19:00,60.0,48.7,29.75,NW,315,1.1,1.1,64,0.00,,,0.00,WUHU216HW,2013-10-06 22:19:00,
2013-10-06 18:20:00,60.0,48.7,29.75,NW,315,1.1,1.1,64,0.00,,,0.00,WUHU216HW,2013-10-06 22:20:00,
2013-10-06 18:21:00,78.9,71.1,29.66,SSE,158,0.0,0.0,77,0.00,,,0.00,WUHU216HW,2013-10-06 22:21:00,
2013-10-06 18:23:00,60.0,48.7,29.75,West,270,0.0,1.1,64,0.00,,,0.00,WUHU216HW,2013-10-06 22:23:00,
2013-10-06 18:26:00,78.9,71.1,29.66,South,180,0.0,0.0,77,0.00,,,0.00,WUHU216HW,2013-10-06 22:26:00,
2013-10-06 18:27:00,60.0,48.7,29.75,WNW,293,2.0,2.0,63,0.00,,,0.00,WUHU216HW,2013-10-06 22:27:00,
2013-10-06 18:30:00,60.0,48.7,29.75,NNE,23,0.0,2.0,63,0.00,,,0.00,WUHU216HW,2013-10-06 22:30:00,
2013-10-06 18:31:00,78.6,70.7,29.66,SSE,158,0.0,0.0,78,0.00,,,0.00,WUHU216HW,2013-10-06 22:31:00,
2013-10-06 18:32:00,60.0,48.7,29.75,NE,45,0.0,2.0,64,0.00,,,0.00,WUHU216HW,2013-10-06 22:32:00,
2013-10-06 18:33:00,60.2,48.4,29.75,SE,135,0.0,2.0,65,0.00,,,0.00,WUHU216HW,2013-10-06 22:33:00,
2013-10-06 18:34:00,60.2,48.4,29.75,SE,135,0.0,2.0,65,0.00,,,0.00,WUHU216HW,2013-10-06 22:34:00,
2013-10-06 18:36:00,78.6,70.7,29.66,SSE,158,0.0,0.0,78,0.00,,,0.00,WUHU216HW,2013-10-06 22:36:00,
2013-10-06 18:38:00,60.4,48.2,29.75,SSW,203,4.2,4.2,64,0.00,,,0.00,WUHU216HW,2013-10-06 22:38:00,
2013-10-06 18:40:00,60.4,47.8,29.75,WNW,293,0.0,4.2,63,0.00,,,0.00,WUHU216HW,2013-10-06 22:40:00,
2013-10-06 18:41:00,78.4,70.9,29.66,East,90,0.0,0.0,78,0.00,,,0.00,WUHU216HW,2013-10-06 22:41:00,
2013-10-06 18:45:00,60.4,47.8,29.75,ENE,68,0.0,4.2,64,0.00,,,0.00,WUHU216HW,2013-10-06 22:45:00,
2013-10-06 18:46:00,78.0,70.6,29.66,ENE,68,0.0,0.0,79,0.00,,,0.00,WUHU216HW,2013-10-06 22:46:00,
2013-10-06 18:51:00,77.9,70.8,29.66,SW,225,0.0,0.0,79,0.00,,,0.00,WUHU216HW,2013-10-06 22:51:00,
2013-10-06 18:56:00,77.7,71.0,29.66,WSW,248,0.0,0.0,80,0.00,,,0.00,WUHU216HW,2013-10-06 22:56:00,
2013-10-06 19:02:00,77.5,70.8,29.66,SW,225,0.0,0.0,80,0.00,,,0.00,WUHU216HW,2013-10-06 23:02:00,
2013-10-06 19:07:00,77.5,70.8,29.66,SW,225,0.0,0.0,80,0.00,,,0.00,WUHU216HW,2013-10-06 23:07:00,
2013-10-06 19:12:00,77.1,70.8,29.66,West,270,0.0,0.0,81,0.00,,,0.00,WUHU216HW,2013-10-06 23:12:00,
2013-10-06 19:17:00,77.1,70.8,29.66,WSW,248,0.0,0.0,81,0.00,,,0.00,WUHU216HW,2013-10-06 23:17:00,
2013-10-06 19:22:00,77.0,71.0,29.66,West,270,0.0,0.0,82,0.00,,,0.00,WUHU216HW,2013-10-06 23:22:00,
2013-10-06 19:23:00,61.1,49.3,29.75,West,270,0.0,0.0,65,0.00,,,0.00,WUHU216HW,2013-10-06 23:23:00,
2013-10-06 19:26:00,61.3,48.2,29.74,North,0,0.0,0.0,63,0.00,,,0.00,WUHU216HW,2013-10-06 23:26:00,
2013-10-06 19:27:00,76.8,70.8,29.66,West,270,0.0,0.0,82,0.00,,,0.00,WUHU216HW,2013-10-06 23:27:00,
2013-10-06 19:28:00,61.3,48.2,29.75,North,0,0.0,0.0,63,0.00,,,0.00,WUHU216HW,2013-10-06 23:28:00,
2013-10-06 19:30:00,61.3,48.2,29.75,NW,315,0.0,0.0,64,0.00,,,0.00,WUHU216HW,2013-10-06 23:30:00,
2013-10-06 19:31:00,61.5,49.2,29.76,ESE,113,0.0,0.0,64,0.00,,,0.00,WUHU216HW,2013-10-06 23:31:00,
2013-10-06 19:32:00,76.6,70.7,29.66,West,270,0.0,0.0,82,0.00,,,0.00,WUHU216HW,2013-10-06 23:32:00,
2013-10-06 19:33:00,61.8,49.5,29.75,NNW,338,0.0,0.0,64,0.00,,,0.00,WUHU216HW,2013-10-06 23:33:00,
2013-10-06 19:34:00,61.8,49.5,29.76,NNW,338,0.0,0.0,64,0.00,,,0.00,WUHU216HW,2013-10-06 23:34:00,
2013-10-06 19:35:00,61.8,49.5,29.76,NNW,338,0.0,0.0,64,0.00,,,0.00,WUHU216HW,2013-10-06 23:35:00,
2013-10-06 19:36:00,61.8,49.5,29.76,NNW,338,0.0,0.0,63,0.00,,,0.00,WUHU216HW,2013-10-06 23:36:00,
2013-10-06 19:37:00,76.6,70.7,29.66,West,270,0.0,0.0,82,0.00,,,0.00,WUHU216HW,2013-10-06 23:37:00,
2013-10-06 19:39:00,61.8,49.5,29.76,East,90,0.0,0.0,63,0.00,,,0.00,WUHU216HW,2013-10-06 23:39:00,
2013-10-06 19:40:00,62.0,49.3,29.76,East,90,0.0,0.0,63,0.00,,,0.00,WUHU216HW,2013-10-06 23:40:00,
2013-10-06 19:41:00,62.0,49.3,29.76,East,90,0.0,0.0,63,0.00,,,0.00,WUHU216HW,2013-10-06 23:41:00,
2013-10-06 19:42:00,76.2,70.7,29.66,NW,315,0.0,0.0,83,0.00,,,0.00,WUHU216HW,2013-10-06 23:42:00,
2013-10-06 19:43:00,62.0,49.3,29.76,ENE,68,0.0,0.0,63,0.00,,,0.00,WUHU216HW,2013-10-06 23:43:00,
2013-10-06 19:44:00,62.2,49.4,29.76,NE,45,0.0,0.0,63,0.00,,,0.00,WUHU216HW,2013-10-06 23:44:00,
2013-10-06 19:45:00,62.2,49.4,29.76,NE,45,0.0,0.0,63,0.00,,,0.00,WUHU216HW,2013-10-06 23:45:00,
2013-10-06 19:46:00,62.2,49.4,29.76,NE,45,0.0,0.0,64,0.00,,,0.00,WUHU216HW,2013-10-06 23:46:00,
2013-10-06 19:47:00,76.2,70.7,29.66,WNW,293,0.0,0.0,83,0.00,,,0.00,WUHU216HW,2013-10-06 23:47:00,
2013-10-06 19:49:00,62.2,49.4,29.76,NE,45,0.0,0.0,64,0.00,,,0.00,WUHU216HW,2013-10-06 23:49:00,
2013-10-06 19:50:00,62.2,49.4,29.76,NE,45,0.0,0.0,64,0.00,,,0.00,WUHU216HW,2013-10-06 23:50:00,
2013-10-06 19:51:00,62.4,50.0,29.76,NNE,23,0.0,0.0,64,0.00,,,0.00,WUHU216HW,2013-10-06 23:51:00,
2013-10-06 19:52:00,76.1,70.5,29.66,WNW,293,0.0,0.0,83,0.00,,,0.00,WUHU216HW,2013-10-06 23:52:00,
2013-10-06 19:53:00,62.4,50.0,29.76,NNE,23,0.0,0.0,64,0.00,,,0.00,WUHU216HW,2013-10-06 23:53:00,
2013-10-06 19:54:00,62.4,50.0,29.76,NNE,23,0.0,0.0,64,0.00,,,0.00,WUHU216HW,2013-10-06 23:54:00,
2013-10-06 19:56:00,62.6,49.8,29.76,NW,315,0.0,0.0,63,0.00,,,0.00,WUHU216HW,2013-10-06 23:56:00,
2013-10-06 19:57:00,75.9,70.4,29.66,WNW,293,0.0,0.0,83,0.00,,,0.00,WUHU216HW,2013-10-06 23:57:00,
2013-10-06 19:58:00,62.4,49.6,29.76,NE,45,0.0,0.0,63,0.00,,,0.00,WUHU216HW,2013-10-06 23:58:00,
2013-10-06 19:59:00,62.6,50.2,29.76,NNE,23,0.0,0.0,64,0.00,,,0.00,WUHU216HW,2013-10-06 23:59:00,
2013-10-06 20:00:00,62.6,50.2,29.76,NNE,23,0.0,0.0,64,0.00,,,0.00,WUHU216HW,2013-10-07 00:00:00,
2013-10-06 20:01:00,62.7,50.3,29.76,NNE,23,0.0,0.0,64,0.00,,,0.00,WUHU216HW,2013-10-07 00:01:00,
2013-10-06 20:02:00,75.7,70.5,29.67,WNW,293,0.0,0.0,84,0.00,,,0.00,WUHU216HW,2013-10-07 00:02:00,
2013-10-06 20:03:00,62.7,50.3,29.76,NNE,23,0.0,0.0,64,0.00,,,0.00,WUHU216HW,2013-10-07 00:03:00,
2013-10-06 20:04:00,62.7,50.3,29.76,NNE,23,0.0,0.0,63,0.00,,,0.00,WUHU216HW,2013-10-07 00:04:00,
2013-10-06 20:07:00,75.7,70.5,29.67,WNW,293,0.0,0.0,84,0.00,,,0.00,WUHU216HW,2013-10-07 00:07:00,
2013-10-06 20:09:00,62.7,50.3,29.76,NW,315,0.0,0.0,65,0.00,,,0.00,WUHU216HW,2013-10-07 00:09:00,
2013-10-06 20:11:00,62.7,50.3,29.76,East,90,0.0,0.0,63,0.00,,,0.00,WUHU216HW,2013-10-07 00:11:00,
2013-10-06 20:12:00,75.5,70.4,29.67,WNW,293,0.0,0.0,84,0.00,,,0.00,WUHU216HW,2013-10-07 00:12:00,
2013-10-06 20:13:00,62.7,50.3,29.76,NW,315,0.0,0.0,63,0.00,,,0.00,WUHU216HW,2013-10-07 00:13:00,
2013-10-06 20:15:00,62.9,50.1,29.76,NW,315,0.8,0.8,63,0.00,,,0.00,WUHU216HW,2013-10-07 00:15:00,
2013-10-06 20:17:00,75.3,70.2,29.67,WNW,293,0.0,0.0,84,0.00,,,0.00,WUHU216HW,2013-10-07 00:17:00,
2013-10-06 20:18:00,62.9,50.1,29.75,NW,315,0.0,0.8,63,0.00,,,0.00,WUHU216HW,2013-10-07 00:18:00,
2013-10-06 20:19:00,62.9,50.1,29.75,NW,315,0.0,0.8,63,0.00,,,0.00,WUHU216HW,2013-10-07 00:19:00,
2013-10-06 20:20:00,62.9,50.1,29.75,NW,315,0.0,0.8,64,0.00,,,0.00,WUHU216HW,2013-10-07 00:20:00,
2013-10-06 20:22:00,75.2,70.0,29.67,SSW,203,0.0,0.0,84,0.00,,,0.00,WUHU216HW,2013-10-07 00:22:00,
2013-10-06 20:23:00,63.1,50.7,29.75,NW,315,0.0,0.8,64,0.00,,,0.00,WUHU216HW,2013-10-07 00:23:00,
2013-10-06 20:24:00,63.1,50.7,29.75,NW,315,0.0,0.8,64,0.00,,,0.00,WUHU216HW,2013-10-07 00:24:00,
2013-10-06 20:25:00,63.3,50.8,29.75,NNE,23,0.0,0.8,64,0.00,,,0.00,WUHU216HW,2013-10-07 00:25:00,
2013-10-06 20:26:00,63.3,50.8,29.75,NNE,23,0.0,0.0,64,0.00,,,0.00,WUHU216HW,2013-10-07 00:26:00,
2013-10-06 20:27:00,75.0,70.2,29.67,SSW,203,0.0,0.0,85,0.00,,,0.00,WUHU216HW,2013-10-07 00:27:00,
2013-10-06 20:28:00,63.3,50.8,29.75,NE,45,0.0,0.0,63,0.00,,,0.00,WUHU216HW,2013-10-07 00:28:00,
2013-10-06 20:29:00,63.3,50.8,29.75,NE,45,0.0,0.0,63,0.00,,,0.00,WUHU216HW,2013-10-07 00:29:00,
2013-10-06 20:30:00,63.3,50.8,29.75,NNW,338,0.0,0.0,62,0.00,,,0.00,WUHU216HW,2013-10-07 00:30:00,
2013-10-06 20:31:00,63.3,50.8,29.75,NNW,338,0.0,0.0,62,0.00,,,0.00,WUHU216HW,2013-10-07 00:31:00,
2013-10-06 20:32:00,75.0,70.2,29.67,SSW,203,0.0,0.0,85,0.00,,,0.00,WUHU216HW,2013-10-07 00:32:00,
2013-10-06 20:33:00,63.3,50.8,29.75,NNW,338,0.0,0.0,63,0.00,,,0.00,WUHU216HW,2013-10-07 00:33:00,
2013-10-06 20:34:00,63.3,50.8,29.75,NNW,338,0.0,0.0,62,0.00,,,0.00,WUHU216HW,2013-10-07 00:34:00,
2013-10-06 20:35:00,63.3,50.8,29.75,NNW,338,0.0,0.0,62,0.00,,,0.00,WUHU216HW,2013-10-07 00:35:00,
2013-10-06 20:36:00,63.3,50.8,29.75,NNW,338,0.0,0.0,62,0.00,,,0.00,WUHU216HW,2013-10-07 00:36:00,
2013-10-06 20:37:00,74.8,70.0,29.66,SSE,158,0.0,0.0,85,0.00,,,0.00,WUHU216HW,2013-10-07 00:37:00,
2013-10-06 20:42:00,74.8,70.0,29.66,SSE,158,0.0,0.0,85,0.00,,,0.00,WUHU216HW,2013-10-07 00:42:00,
2013-10-06 20:47:00,74.6,69.8,29.67,SSE,158,0.0,0.0,85,0.00,,,0.00,WUHU216HW,2013-10-07 00:47:00,
2013-10-06 20:52:00,74.4,69.7,29.67,SSE,158,0.0,0.0,85,0.00,,,0.00,WUHU216HW,2013-10-07 00:52:00,
2013-10-06 20:57:00,74.3,69.8,29.67,SE,135,0.0,0.0,86,0.00,,,0.00,WUHU216HW,2013-10-07 00:57:00,
2013-10-06 21:02:00,74.1,69.6,29.67,SE,135,0.0,0.0,86,0.00,,,0.00,WUHU216HW,2013-10-07 01:02:00,
2013-10-06 21:08:00,74.1,69.6,29.66,SE,135,0.0,0.0,86,0.00,,,0.00,WUHU216HW,2013-10-07 01:08:00,
2013-10-06 21:13:00,73.9,69.5,29.66,SE,135,0.0,0.0,86,0.00,,,0.00,WUHU216HW,2013-10-07 01:13:00,
2013-10-06 21:18:00,73.7,69.6,29.67,SE,135,0.0,0.0,87,0.00,,,0.00,WUHU216HW,2013-10-07 01:18:00,
2013-10-06 21:23:00,73.7,69.6,29.67,SSW,203,0.0,0.0,87,0.00,,,0.00,WUHU216HW,2013-10-07 01:23:00,
2013-10-06 21:28:00,73.5,69.4,29.67,SE,135,0.0,0.0,87,0.00,,,0.00,WUHU216HW,2013-10-07 01:28:00,
2013-10-06 21:33:00,73.5,69.4,29.67,SSW,203,0.0,0.0,87,0.00,,,0.00,WUHU216HW,2013-10-07 01:33:00,
2013-10-06 21:38:00,73.5,69.4,29.67,NNW,338,0.0,0.0,87,0.00,,,0.00,WUHU216HW,2013-10-07 01:38:00,
2013-10-06 21:43:00,73.4,69.3,29.67,North,0,0.0,0.0,87,0.00,,,0.00,WUHU216HW,2013-10-07 01:43:00,
2013-10-06 21:48:00,73.5,69.4,29.68,NW,315,0.0,0.0,87,0.00,,,0.00,WUHU216HW,2013-10-07 01:48:00,
2013-10-06 21:49:00,65.8,52.0,29.72,NNW,338,0.0,0.0,61,0.00,,,0.00,WUHU216HW,2013-10-07 01:49:00,
2013-10-06 21:50:00,65.8,52.0,29.72,NNW,338,0.0,0.0,61,0.00,,,0.00,WUHU216HW,2013-10-07 01:50:00,
2013-10-06 21:51:00,65.8,52.0,29.72,NNE,23,0.0,0.0,61,0.00,,,0.00,WUHU216HW,2013-10-07 01:51:00,
2013-10-06 21:52:00,65.8,52.0,29.72,NNE,23,0.0,0.0,61,0.00,,,0.00,WUHU216HW,2013-10-07 01:52:00,
2013-10-06 21:53:00,73.4,69.3,29.68,NW,315,0.0,0.0,87,0.00,,,0.00,WUHU216HW,2013-10-07 01:53:00,
2013-10-06 21:54:00,66.0,52.2,29.72,NNE,23,0.0,0.0,61,0.00,,,0.00,WUHU216HW,2013-10-07 01:54:00,
2013-10-06 21:55:00,66.0,52.2,29.72,NNE,23,0.0,0.0,61,0.00,,,0.00,WUHU216HW,2013-10-07 01:55:00,
2013-10-06 21:56:00,66.3,52.9,29.72,NNE,23,0.0,0.0,62,0.00,,,0.00,WUHU216HW,2013-10-07 01:56:00,
2013-10-06 21:57:00,66.3,52.9,29.72,NNE,23,0.0,0.0,62,0.00,,,0.00,WUHU216HW,2013-10-07 01:57:00,
2013-10-06 21:58:00,73.4,69.3,29.68,NW,315,0.0,0.0,87,0.00,,,0.00,WUHU216HW,2013-10-07 01:58:00,
2013-10-06 21:59:00,66.3,52.9,29.72,West,270,0.0,0.0,61,0.00,,,0.00,WUHU216HW,2013-10-07 01:59:00,
2013-10-06 22:03:00,73.5,69.4,29.67,WNW,293,0.0,0.0,87,0.00,,,0.00,WUHU216HW,2013-10-07 02:03:00,
2013-10-06 22:08:00,73.4,69.3,29.67,SW,225,0.0,0.0,87,0.00,,,0.00,WUHU216HW,2013-10-07 02:08:00,
2013-10-06 22:13:00,73.2,69.4,29.67,SSW,203,0.0,0.0,88,0.00,,,0.00,WUHU216HW,2013-10-07 02:13:00,
2013-10-06 22:14:00,66.9,53.0,29.72,ENE,68,0.0,0.0,61,0.00,,,0.00,WUHU216HW,2013-10-07 02:14:00,
2013-10-06 22:15:00,66.9,53.0,29.72,ENE,68,0.0,0.0,60,0.00,,,0.00,WUHU216HW,2013-10-07 02:15:00,
2013-10-06 22:18:00,73.2,69.4,29.67,SSW,203,0.0,0.0,88,0.00,,,0.00,WUHU216HW,2013-10-07 02:18:00,
2013-10-06 22:19:00,66.9,53.0,29.72,ENE,68,0.0,0.0,60,0.00,,,0.00,WUHU216HW,2013-10-07 02:19:00,
2013-10-06 22:20:00,66.9,53.0,29.72,ENE,68,0.0,0.0,60,0.00,,,0.00,WUHU216HW,2013-10-07 02:20:00,
2013-10-06 22:21:00,66.9,53.0,29.71,ENE,68,0.0,0.0,61,0.00,,,0.00,WUHU216HW,2013-10-07 02:21:00,
2013-10-06 22:22:00,66.9,53.0,29.72,ENE,68,0.0,0.0,61,0.00,,,0.00,WUHU216HW,2013-10-07 02:22:00,
2013-10-06 22:23:00,73.2,69.4,29.67,SSE,158,0.0,0.0,88,0.00,,,0.00,WUHU216HW,2013-10-07 02:23:00,
2013-10-06 22:24:00,66.9,53.0,29.71,ENE,68,0.0,0.0,60,0.00,,,0.00,WUHU216HW,2013-10-07 02:24:00,
2013-10-06 22:25:00,66.9,53.0,29.71,ENE,68,0.0,0.0,60,0.00,,,0.00,WUHU216HW,2013-10-07 02:25:00,
2013-10-06 22:27:00,66.9,53.0,29.71,ENE,68,0.0,0.0,61,0.00,,,0.00,WUHU216HW,2013-10-07 02:27:00,
2013-10-06 22:28:00,73.2,69.4,29.67,SSE,158,0.0,0.0,88,0.00,,,0.00,WUHU216HW,2013-10-07 02:28:00,
2013-10-06 22:33:00,73.2,69.4,29.67,SSE,158,0.0,0.0,88,0.00,,,0.00,WUHU216HW,2013-10-07 02:33:00,
2013-10-06 22:38:00,73.2,69.4,29.67,SSW,203,0.0,0.0,88,0.00,,,0.00,WUHU216HW,2013-10-07 02:38:00,
2013-10-06 22:43:00,73.2,69.4,29.67,SSE,158,0.0,0.0,88,0.00,,,0.00,WUHU216HW,2013-10-07 02:43:00,
2013-10-06 22:49:00,73.2,69.4,29.66,SSE,158,0.0,0.0,88,0.00,,,0.00,WUHU216HW,2013-10-07 02:49:00,
2013-10-06 22:54:00,73.2,69.4,29.66,NE,45,0.0,0.0,88,0.00,,,0.00,WUHU216HW,2013-10-07 02:54:00,
2013-10-06 22:59:00,73.2,69.4,29.66,SSE,158,0.0,0.0,88,0.00,,,0.00,WUHU216HW,2013-10-07 02:59:00,
2013-10-06 23:04:00,73.2,69.4,29.66,SSE,158,0.0,0.0,88,0.00,,,0.00,WUHU216HW,2013-10-07 03:04:00,
2013-10-06 23:09:00,73.2,69.4,29.66,SSE,158,0.0,0.0,88,0.00,,,0.00,WUHU216HW,2013-10-07 03:09:00,
2013-10-06 23:14:00,73.2,69.4,29.67,SSE,158,0.0,0.0,88,0.00,,,0.00,WUHU216HW,2013-10-07 03:14:00,
2013-10-06 23:19:00,73.0,69.2,29.66,SSE,158,0.0,0.0,88,0.00,,,0.00,WUHU216HW,2013-10-07 03:19:00,
2013-10-06 23:22:00,67.1,52.7,29.70,NNE,23,0.0,0.0,60,0.00,,,0.00,WUHU216HW,2013-10-07 03:22:00,
2013-10-06 23:24:00,73.0,69.2,29.66,SSE,158,0.0,0.0,88,0.00,,,0.00,WUHU216HW,2013-10-07 03:24:00,
2013-10-06 23:25:00,67.2,52.4,29.70,NNE,23,0.0,0.0,60,0.00,,,0.00,WUHU216HW,2013-10-07 03:25:00,
2013-10-06 23:28:00,67.2,52.4,29.70,NNE,23,0.0,0.0,61,0.00,,,0.00,WUHU216HW,2013-10-07 03:28:00,
2013-10-06 23:29:00,73.0,69.2,29.66,SSE,158,0.0,0.0,88,0.00,,,0.00,WUHU216HW,2013-10-07 03:29:00,
2013-10-06 23:31:00,67.1,53.2,29.69,NNE,23,0.0,0.0,61,0.00,,,0.00,WUHU216HW,2013-10-07 03:31:00,
2013-10-06 23:33:00,67.1,53.2,29.70,NNE,23,0.0,0.0,62,0.00,,,0.00,WUHU216HW,2013-10-07 03:33:00,
2013-10-06 23:34:00,73.0,69.2,29.66,SSE,158,0.0,0.0,88,0.00,,,0.00,WUHU216HW,2013-10-07 03:34:00,
2013-10-06 23:37:00,66.9,53.4,29.70,NNE,23,0.0,0.0,62,0.00,,,0.00,WUHU216HW,2013-10-07 03:37:00,
2013-10-06 23:39:00,73.0,69.2,29.66,SSE,158,0.0,0.0,88,0.00,,,0.00,WUHU216HW,2013-10-07 03:39:00,
2013-10-06 23:40:00,66.9,53.4,29.70,NNE,23,0.0,0.0,62,0.00,,,0.00,WUHU216HW,2013-10-07 03:40:00,
2013-10-06 23:43:00,67.1,53.6,29.70,NNE,23,0.0,0.0,62,0.00,,,0.00,WUHU216HW,2013-10-07 03:43:00,
2013-10-06 23:44:00,73.0,69.2,29.66,SSE,158,0.0,0.0,88,0.00,,,0.00,WUHU216HW,2013-10-07 03:44:00,
2013-10-06 23:46:00,67.1,53.6,29.70,NNE,23,0.0,0.0,62,0.00,,,0.00,WUHU216HW,2013-10-07 03:46:00,
2013-10-06 23:49:00,72.8,69.1,29.66,SSE,158,0.0,0.0,88,0.00,,,0.00,WUHU216HW,2013-10-07 03:49:00,
2013-10-06 23:50:00,67.1,53.6,29.70,NNE,23,0.0,0.0,62,0.00,,,0.00,WUHU216HW,2013-10-07 03:50:00,
2013-10-06 23:51:00,67.2,53.8,29.70,NNE,23,0.0,0.0,62,0.00,,,0.00,WUHU216HW,2013-10-07 03:51:00,
2013-10-06 23:54:00,72.8,69.1,29.66,SSE,158,0.0,0.0,88,0.00,,,0.00,WUHU216HW,2013-10-07 03:54:00,
2013-10-06 23:58:00,67.4,53.9,29.70,NNE,23,0.0,0.0,62,0.00,,,0.00,WUHU216HW,2013-10-07 03:58:00,
2013-10-06 23:59:00,72.6,68.9,29.66,SSE,158,0.0,0.0,88,0.00,,,0.00,WUHU216HW,2013-10-07 03:59:00,